Wetterdaten: Montag, 30.03.2015
Datum Zeit Temp. Aussen +5cm Feuchte Auss Luftdruck Regen Sonnenschein Regendauer Solar Windben
30.03.2015 00:00 6,9 C 5,0 C 94 % 996,0 hPa 0,0 l/m 0 min 0 min 0 W/m 20,9 km/h (4 Bft)
30.03.2015 00:02 6,9 C 5,0 C 93 % 996,1 hPa 0,0 l/m 0 min 0 min 0 W/m 25,1 km/h (4 Bft)
30.03.2015 00:06 6,9 C 5,0 C 93 % 996,0 hPa 0,0 l/m 0 min 0 min 0 W/m 29,3 km/h (5 Bft)
30.03.2015 00:08 6,9 C 5,0 C 93 % 996,0 hPa 0,0 l/m 0 min 0 min 0 W/m 23,0 km/h (4 Bft)
30.03.2015 00:10 6,9 C 5,0 C 93 % 996,1 hPa 0,0 l/m 0 min 0 min 0 W/m 29,3 km/h (5 Bft)
30.03.2015 00:12 6,9 C 5,0 C 93 % 996,0 hPa 0,0 l/m 0 min 0 min 0 W/m 23,0 km/h (4 Bft)
30.03.2015 00:14 6,9 C 5,0 C 93 % 996,0 hPa 0,0 l/m 0 min 0 min 0 W/m 29,3 km/h (5 Bft)
30.03.2015 00:16 6,9 C 5,0 C 92 % 995,9 hPa 0,0 l/m 0 min 0 min 0 W/m 29,3 km/h (5 Bft)
30.03.2015 00:18 6,9 C 5,0 C 92 % 996,1 hPa 0,0 l/m 0 min 0 min 0 W/m 27,2 km/h (4 Bft)
30.03.2015 00:20 6,9 C 5,0 C 92 % 996,1 hPa 0,0 l/m 0 min 0 min 0 W/m 20,9 km/h (4 Bft)
30.03.2015 00:22 6,9 C 5,0 C 92 % 996,2 hPa 0,0 l/m 0 min 0 min 0 W/m 27,2 km/h (4 Bft)
30.03.2015 00:24 6,9 C 5,0 C 92 % 996,0 hPa 0,0 l/m 0 min 0 min 0 W/m 18,8 km/h (3 Bft)
30.03.2015 00:26 6,9 C 5,0 C 92 % 996,1 hPa 0,0 l/m 0 min 0 min 0 W/m 18,8 km/h (3 Bft)
30.03.2015 00:28 6,9 C 5,0 C 91 % 996,1 hPa 0,0 l/m 0 min 0 min 0 W/m 23,0 km/h (4 Bft)
30.03.2015 00:30 6,9 C 5,0 C 91 % 996,1 hPa 0,0 l/m 0 min 0 min 0 W/m 25,1 km/h (4 Bft)
30.03.2015 00:32 6,9 C 5,0 C 91 % 996,1 hPa 0,0 l/m 0 min 0 min 0 W/m 23,0 km/h (4 Bft)
30.03.2015 00:34 6,9 C 5,0 C 91 % 996,2 hPa 0,0 l/m 0 min 0 min 0 W/m 25,1 km/h (4 Bft)
30.03.2015 00:36 6,9 C 5,0 C 91 % 996,1 hPa 0,0 l/m 0 min 0 min 0 W/m 23,0 km/h (4 Bft)
30.03.2015 00:38 6,9 C 5,0 C 91 % 996,1 hPa 0,0 l/m 0 min 0 min 0 W/m 23,0 km/h (4 Bft)
30.03.2015 00:40 6,9 C 5,0 C 91 % 996,2 hPa 0,0 l/m 0 min 0 min 0 W/m 14,6 km/h (3 Bft)
30.03.2015 00:42 6,9 C 5,0 C 91 % 996,2 hPa 0,0 l/m 0 min 0 min 0 W/m 18,8 km/h (3 Bft)
30.03.2015 00:44 6,9 C 5,0 C 91 % 996,2 hPa 0,0 l/m 0 min 0 min 0 W/m 18,8 km/h (3 Bft)
30.03.2015 00:46 6,9 C 5,0 C 91 % 996,2 hPa 0,0 l/m 0 min 0 min 0 W/m 20,9 km/h (4 Bft)
30.03.2015 00:48 6,9 C 5,0 C 91 % 996,2 hPa 0,0 l/m 0 min 0 min 0 W/m 29,3 km/h (5 Bft)
30.03.2015 00:50 6,9 C 5,0 C 91 % 996,2 hPa 0,0 l/m 0 min 0 min 0 W/m 20,9 km/h (4 Bft)
30.03.2015 00:52 6,9 C 5,0 C 90 % 996,3 hPa 0,0 l/m 0 min 0 min 0 W/m 27,2 km/h (4 Bft)
30.03.2015 00:54 6,9 C 5,0 C 90 % 996,4 hPa 0,0 l/m 0 min 0 min 0 W/m 20,9 km/h (4 Bft)
30.03.2015 00:56 6,9 C 5,0 C 90 % 996,3 hPa 0,0 l/m 0 min 0 min 0 W/m 20,9 km/h (4 Bft)
30.03.2015 00:58 6,9 C 5,0 C 90 % 996,3 hPa 0,0 l/m 0 min 0 min 0 W/m 16,7 km/h (3 Bft)
30.03.2015 01:00 6,9 C 5,0 C 90 % 996,2 hPa 0,0 l/m 0 min 0 min 0 W/m 20,9 km/h (4 Bft)
30.03.2015 01:02 6,9 C 5,0 C 90 % 996,2 hPa 0,0 l/m 0 min 0 min 0 W/m 23,0 km/h (4 Bft)
30.03.2015 01:04 6,9 C 5,0 C 90 % 996,3 hPa 0,0 l/m 0 min 0 min 0 W/m 14,6 km/h (3 Bft)
30.03.2015 01:06 7,0 C 5,0 C 90 % 996,4 hPa 0,0 l/m 0 min 0 min 0 W/m 18,8 km/h (3 Bft)
30.03.2015 01:08 7,0 C 5,0 C 90 % 996,5 hPa 0,0 l/m 0 min 0 min 0 W/m 20,9 km/h (4 Bft)
30.03.2015 01:10 7,0 C 5,6 C 90 % 996,6 hPa 0,0 l/m 0 min 0 min 0 W/m 29,3 km/h (5 Bft)
30.03.2015 01:12 7,1 C 5,6 C 90 % 996,6 hPa 0,0 l/m 0 min 0 min 0 W/m 23,0 km/h (4 Bft)
30.03.2015 01:14 7,1 C 5,6 C 90 % 996,5 hPa 0,0 l/m 0 min 0 min 0 W/m 20,9 km/h (4 Bft)
30.03.2015 01:16 7,1 C 5,6 C 90 % 996,4 hPa 0,0 l/m 0 min 0 min 0 W/m 23,0 km/h (4 Bft)
30.03.2015 01:18 7,1 C 5,6 C 90 % 996,3 hPa 0,0 l/m 0 min 0 min 0 W/m 18,8 km/h (3 Bft)
30.03.2015 01:20 7,1 C 5,6 C 89 % 996,3 hPa 0,0 l/m 0 min 0 min 0 W/m 18,8 km/h (3 Bft)
30.03.2015 01:22 7,1 C 5,6 C 89 % 996,3 hPa 0,0 l/m 0 min 0 min 0 W/m 16,7 km/h (3 Bft)
30.03.2015 01:24 7,1 C 5,0 C 89 % 996,2 hPa 0,0 l/m 0 min 0 min 0 W/m 16,7 km/h (3 Bft)
30.03.2015 01:26 7,1 C 5,0 C 89 % 996,2 hPa 0,0 l/m 0 min 0 min 0 W/m 16,7 km/h (3 Bft)
30.03.2015 01:28 7,1 C 5,0 C 89 % 996,1 hPa 0,0 l/m 0 min 0 min 0 W/m 16,7 km/h (3 Bft)
30.03.2015 01:30 7,1 C 5,0 C 89 % 996,1 hPa 0,0 l/m 0 min 0 min 0 W/m 14,6 km/h (3 Bft)
30.03.2015 01:32 7,2 C 5,0 C 89 % 996,0 hPa 0,0 l/m 0 min 0 min 0 W/m 20,9 km/h (4 Bft)
30.03.2015 01:34 7,2 C 5,6 C 89 % 996,1 hPa 0,0 l/m 0 min 0 min 0 W/m 16,7 km/h (3 Bft)
30.03.2015 01:36 7,2 C 5,6 C 89 % 996,0 hPa 0,0 l/m 0 min 0 min 0 W/m 18,8 km/h (3 Bft)
30.03.2015 01:38 7,2 C 5,0 C 89 % 996,0 hPa 0,0 l/m 0 min 0 min 0 W/m 18,8 km/h (3 Bft)
30.03.2015 01:40 7,2 C 5,6 C 89 % 996,0 hPa 0,0 l/m 0 min 0 min 0 W/m 27,2 km/h (4 Bft)
30.03.2015 01:42 7,2 C 5,6 C 89 % 996,1 hPa 0,0 l/m 0 min 0 min 0 W/m 25,1 km/h (4 Bft)
30.03.2015 01:44 7,2 C 5,6 C 89 % 996,1 hPa 0,0 l/m 0 min 0 min 0 W/m 23,0 km/h (4 Bft)
30.03.2015 01:46 7,3 C 5,6 C 89 % 996,0 hPa 0,0 l/m 0 min 2 min 0 W/m 25,1 km/h (4 Bft)
30.03.2015 01:48 7,3 C 5,6 C 89 % 996,1 hPa 0,0 l/m 0 min 2 min 0 W/m 23,0 km/h (4 Bft)
30.03.2015 01:50 7,3 C 5,6 C 89 % 996,2 hPa 0,0 l/m 0 min 2 min 0 W/m 23,0 km/h (4 Bft)
30.03.2015 01:52 7,3 C 5,6 C 89 % 996,0 hPa 0,0 l/m 0 min 2 min 0 W/m 23,0 km/h (4 Bft)
30.03.2015 01:54 7,4 C 5,6 C 89 % 996,1 hPa 0,0 l/m 0 min 2 min 0 W/m 27,2 km/h (4 Bft)
30.03.2015 01:56 7,4 C 5,6 C 89 % 996,0 hPa 0,0 l/m 0 min 2 min 0 W/m 25,1 km/h (4 Bft)
30.03.2015 01:58 7,4 C 5,6 C 89 % 996,1 hPa 0,0 l/m 0 min 2 min 0 W/m 29,3 km/h (5 Bft)
30.03.2015 02:00 7,5 C 5,6 C 89 % 996,0 hPa 0,0 l/m 0 min 2 min 0 W/m 27,2 km/h (4 Bft)
30.03.2015 02:02 7,5 C 5,6 C 89 % 996,0 hPa 0,0 l/m 0 min 2 min 0 W/m 25,1 km/h (4 Bft)
30.03.2015 02:04 7,6 C 5,6 C 89 % 996,0 hPa 0,0 l/m 0 min 0 min 0 W/m 39,7 km/h (6 Bft)
30.03.2015 02:06 7,6 C 5,6 C 89 % 996,1 hPa 0,0 l/m 0 min 0 min 0 W/m 29,3 km/h (5 Bft)
30.03.2015 02:08 7,6 C 5,6 C 89 % 996,1 hPa 0,0 l/m 0 min 0 min 0 W/m 31,4 km/h (5 Bft)
30.03.2015 02:10 7,7 C 5,6 C 89 % 996,1 hPa 0,0 l/m 0 min 2 min 0 W/m 25,1 km/h (4 Bft)
30.03.2015 02:12 7,7 C 5,6 C 89 % 996,2 hPa 0,0 l/m 0 min 0 min 0 W/m 33,5 km/h (5 Bft)
30.03.2015 02:14 7,7 C 5,6 C 89 % 996,2 hPa 0,0 l/m 0 min 2 min 0 W/m 23,0 km/h (4 Bft)
30.03.2015 02:16 7,7 C 5,6 C 89 % 996,2 hPa 0,0 l/m 0 min 2 min 0 W/m 41,8 km/h (6 Bft)
30.03.2015 02:18 7,7 C 5,6 C 89 % 996,2 hPa 0,0 l/m 0 min 2 min 0 W/m 31,4 km/h (5 Bft)
30.03.2015 02:20 7,8 C 5,6 C 89 % 996,1 hPa 0,0 l/m 0 min 2 min 0 W/m 39,7 km/h (6 Bft)
30.03.2015 02:22 7,8 C 5,6 C 90 % 996,2 hPa 0,0 l/m 0 min 2 min 0 W/m 43,9 km/h (6 Bft)
30.03.2015 02:24 7,8 C 5,6 C 90 % 996,2 hPa 0,0 l/m 0 min 2 min 0 W/m 25,1 km/h (4 Bft)
30.03.2015 02:26 7,8 C 5,6 C 90 % 996,2 hPa 0,0 l/m 0 min 2 min 0 W/m 25,1 km/h (4 Bft)
30.03.2015 02:28 7,7 C 5,6 C 90 % 996,2 hPa 0,0 l/m 0 min 2 min 0 W/m 31,4 km/h (5 Bft)
30.03.2015 02:30 7,7 C 5,6 C 91 % 996,3 hPa 0,0 l/m 0 min 2 min 0 W/m 23,0 km/h (4 Bft)
30.03.2015 02:32 7,7 C 5,6 C 91 % 996,2 hPa 0,0 l/m 0 min 2 min 0 W/m 25,1 km/h (4 Bft)
30.03.2015 02:34 7,7 C 5,6 C 91 % 996,2 hPa 0,0 l/m 0 min 2 min 0 W/m 23,0 km/h (4 Bft)
30.03.2015 02:36 7,7 C 5,6 C 91 % 996,2 hPa 0,0 l/m 0 min 2 min 0 W/m 29,3 km/h (5 Bft)
30.03.2015 02:38 7,6 C 5,6 C 91 % 996,2 hPa 0,0 l/m 0 min 0 min 0 W/m 23,0 km/h (4 Bft)
30.03.2015 02:40 7,6 C 5,6 C 91 % 996,2 hPa 0,0 l/m 0 min 0 min 0 W/m 18,8 km/h (3 Bft)
30.03.2015 02:42 7,6 C 5,6 C 92 % 996,4 hPa 0,0 l/m 0 min 0 min 0 W/m 23,0 km/h (4 Bft)
30.03.2015 02:44 7,6 C 5,6 C 92 % 996,3 hPa 0,0 l/m 0 min 2 min 0 W/m 41,8 km/h (6 Bft)
30.03.2015 02:46 7,6 C 5,6 C 92 % 996,5 hPa 0,2 l/m 0 min 2 min 0 W/m 33,5 km/h (5 Bft)
30.03.2015 02:48 7,6 C 5,6 C 92 % 996,6 hPa 0,0 l/m 0 min 2 min 0 W/m 29,3 km/h (5 Bft)
30.03.2015 02:50 7,6 C 5,6 C 92 % 996,6 hPa 0,2 l/m 0 min 2 min 0 W/m 35,6 km/h (5 Bft)
30.03.2015 02:52 7,6 C 5,6 C 92 % 996,7 hPa 0,0 l/m 0 min 2 min 0 W/m 35,6 km/h (5 Bft)
30.03.2015 02:54 7,6 C 5,6 C 93 % 996,6 hPa 0,0 l/m 0 min 2 min 0 W/m 46,0 km/h (6 Bft)
30.03.2015 02:56 7,5 C 5,6 C 93 % 996,8 hPa 0,0 l/m 0 min 2 min 0 W/m 43,9 km/h (6 Bft)
30.03.2015 02:58 7,4 C 5,6 C 93 % 996,8 hPa 0,0 l/m 0 min 0 min 0 W/m 25,1 km/h (4 Bft)
30.03.2015 03:00 7,4 C 5,6 C 93 % 996,9 hPa 0,0 l/m 0 min 0 min 0 W/m 37,7 km/h (5 Bft)
30.03.2015 03:02 7,3 C 5,0 C 93 % 996,8 hPa 0,0 l/m 0 min 0 min 0 W/m 31,4 km/h (5 Bft)
30.03.2015 03:04 7,3 C 5,0 C 93 % 996,9 hPa 0,0 l/m 0 min 0 min 0 W/m 41,8 km/h (6 Bft)
30.03.2015 03:06 7,2 C 5,0 C 93 % 997,1 hPa 0,0 l/m 0 min 0 min 0 W/m 29,3 km/h (5 Bft)
30.03.2015 03:08 7,2 C 5,0 C 93 % 997,1 hPa 0,0 l/m 0 min 0 min 0 W/m 31,4 km/h (5 Bft)
30.03.2015 03:10 7,1 C 5,0 C 93 % 997,1 hPa 0,2 l/m 0 min 0 min 0 W/m 29,3 km/h (5 Bft)
30.03.2015 03:12 7,1 C 5,0 C 93 % 997,2 hPa 0,0 l/m 0 min 0 min 0 W/m 25,1 km/h (4 Bft)
30.03.2015 03:14 7,0 C 5,0 C 93 % 997,1 hPa 0,0 l/m 0 min 0 min 0 W/m 33,5 km/h (5 Bft)
30.03.2015 03:16 7,0 C 5,0 C 92 % 997,3 hPa 0,0 l/m 0 min 0 min 0 W/m 35,6 km/h (5 Bft)
30.03.2015 03:18 6,9 C 5,0 C 92 % 997,4 hPa 0,0 l/m 0 min 0 min 0 W/m 29,3 km/h (5 Bft)
30.03.2015 03:20 6,9 C 5,0 C 92 % 997,4 hPa 0,0 l/m 0 min 0 min 0 W/m 25,1 km/h (4 Bft)
30.03.2015 03:22 6,9 C 5,0 C 92 % 997,4 hPa 0,0 l/m 0 min 0 min 0 W/m 35,6 km/h (5 Bft)
30.03.2015 03:24 6,8 C 5,0 C 92 % 997,3 hPa 0,0 l/m 0 min 0 min 0 W/m 35,6 km/h (5 Bft)
30.03.2015 03:26 6,8 C 5,0 C 92 % 997,4 hPa 0,0 l/m 0 min 0 min 0 W/m 31,4 km/h (5 Bft)
30.03.2015 03:28 6,8 C 5,0 C 92 % 997,3 hPa 0,0 l/m 0 min 0 min 0 W/m 29,3 km/h (5 Bft)
30.03.2015 03:30 6,7 C 5,0 C 92 % 997,4 hPa 0,0 l/m 0 min 0 min 0 W/m 31,4 km/h (5 Bft)
30.03.2015 03:32 6,7 C 5,0 C 91 % 997,4 hPa 0,0 l/m 0 min 0 min 0 W/m 33,5 km/h (5 Bft)
30.03.2015 03:34 6,7 C 4,4 C 91 % 997,4 hPa 0,0 l/m 0 min 0 min 0 W/m 31,4 km/h (5 Bft)
30.03.2015 03:36 6,7 C 4,4 C 91 % 997,4 hPa 0,0 l/m 0 min 0 min 0 W/m 35,6 km/h (5 Bft)
30.03.2015 03:38 6,7 C 4,4 C 91 % 997,5 hPa 0,0 l/m 0 min 0 min 0 W/m 35,6 km/h (5 Bft)
30.03.2015 03:40 6,6 C 4,4 C 91 % 997,5 hPa 0,0 l/m 0 min 2 min 0 W/m 29,3 km/h (5 Bft)
30.03.2015 03:42 6,6 C 4,4 C 91 % 997,3 hPa 0,0 l/m 0 min 0 min 0 W/m 35,6 km/h (5 Bft)
30.03.2015 03:44 6,6 C 4,4 C 90 % 997,4 hPa 0,0 l/m 0 min 0 min 0 W/m 39,7 km/h (6 Bft)
30.03.2015 03:46 6,6 C 4,4 C 90 % 997,4 hPa 0,0 l/m 0 min 0 min 0 W/m 23,0 km/h (4 Bft)
30.03.2015 03:48 6,6 C 4,4 C 90 % 997,5 hPa 0,0 l/m 0 min 0 min 0 W/m 33,5 km/h (5 Bft)
30.03.2015 03:50 6,6 C 4,4 C 90 % 997,6 hPa 0,0 l/m 0 min 0 min 0 W/m 29,3 km/h (5 Bft)
30.03.2015 03:52 6,6 C 4,4 C 89 % 997,5 hPa 0,0 l/m 0 min 0 min 0 W/m 25,1 km/h (4 Bft)
30.03.2015 03:54 6,5 C 4,4 C 89 % 997,5 hPa 0,0 l/m 0 min 0 min 0 W/m 23,0 km/h (4 Bft)
30.03.2015 03:56 6,5 C 4,4 C 89 % 997,4 hPa 0,0 l/m 0 min 0 min 0 W/m 35,6 km/h (5 Bft)
30.03.2015 03:58 6,5 C 4,4 C 89 % 997,5 hPa 0,0 l/m 0 min 0 min 0 W/m 31,4 km/h (5 Bft)
30.03.2015 04:00 6,4 C 4,4 C 89 % 997,4 hPa 0,0 l/m 0 min 0 min 0 W/m 35,6 km/h (5 Bft)
30.03.2015 04:02 6,4 C 4,4 C 89 % 997,4 hPa 0,0 l/m 0 min 0 min 0 W/m 20,9 km/h (4 Bft)
30.03.2015 04:04 6,4 C 4,4 C 89 % 997,4 hPa 0,0 l/m 0 min 0 min 0 W/m 27,2 km/h (4 Bft)
30.03.2015 04:06 6,4 C 4,4 C 88 % 997,4 hPa 0,0 l/m 0 min 0 min 0 W/m 33,5 km/h (5 Bft)
30.03.2015 04:08 6,4 C 4,4 C 88 % 997,4 hPa 0,0 l/m 0 min 0 min 0 W/m 33,5 km/h (5 Bft)
30.03.2015 04:10 6,4 C 4,4 C 88 % 997,5 hPa 0,0 l/m 0 min 0 min 0 W/m 35,6 km/h (5 Bft)
30.03.2015 04:12 6,4 C 4,4 C 88 % 997,5 hPa 0,0 l/m 0 min 0 min 0 W/m 20,9 km/h (4 Bft)
30.03.2015 04:14 6,4 C 4,4 C 88 % 997,4 hPa 0,0 l/m 0 min 0 min 0 W/m 25,1 km/h (4 Bft)
30.03.2015 04:16 6,4 C 4,4 C 88 % 997,4 hPa 0,0 l/m 0 min 0 min 0 W/m 23,0 km/h (4 Bft)
30.03.2015 04:18 6,4 C 3,9 C 88 % 997,4 hPa 0,0 l/m 0 min 0 min 0 W/m 18,8 km/h (3 Bft)
30.03.2015 04:20 6,4 C 4,4 C 88 % 997,5 hPa 0,0 l/m 0 min 0 min 0 W/m 23,0 km/h (4 Bft)
30.03.2015 04:22 6,4 C 4,4 C 88 % 997,4 hPa 0,0 l/m 0 min 0 min 0 W/m 20,9 km/h (4 Bft)
30.03.2015 04:24 6,4 C 3,9 C 88 % 997,4 hPa 0,0 l/m 0 min 0 min 0 W/m 27,2 km/h (4 Bft)
30.03.2015 04:26 6,4 C 4,4 C 88 % 997,5 hPa 0,0 l/m 0 min 0 min 0 W/m 39,7 km/h (6 Bft)
30.03.2015 04:28 6,4 C 4,4 C 88 % 997,5 hPa 0,0 l/m 0 min 0 min 0 W/m 29,3 km/h (5 Bft)
30.03.2015 04:30 6,4 C 4,4 C 87 % 997,6 hPa 0,0 l/m 0 min 0 min 0 W/m 31,4 km/h (5 Bft)
30.03.2015 04:32 6,4 C 4,4 C 87 % 997,6 hPa 0,0 l/m 0 min 0 min 0 W/m 27,2 km/h (4 Bft)
30.03.2015 04:34 6,4 C 3,9 C 87 % 997,6 hPa 0,0 l/m 0 min 0 min 0 W/m 27,2 km/h (4 Bft)
30.03.2015 04:36 6,4 C 4,4 C 87 % 997,5 hPa 0,0 l/m 0 min 0 min 0 W/m 25,1 km/h (4 Bft)
30.03.2015 04:38 6,4 C 3,9 C 87 % 997,5 hPa 0,0 l/m 0 min 0 min 0 W/m 20,9 km/h (4 Bft)
30.03.2015 04:40 6,3 C 4,4 C 87 % 997,6 hPa 0,0 l/m 0 min 0 min 0 W/m 33,5 km/h (5 Bft)
30.03.2015 04:42 6,3 C 3,9 C 87 % 997,7 hPa 0,0 l/m 0 min 0 min 0 W/m 29,3 km/h (5 Bft)
30.03.2015 04:44 6,3 C 3,9 C 88 % 997,7 hPa 0,0 l/m 0 min 0 min 0 W/m 14,6 km/h (3 Bft)
30.03.2015 04:46 6,3 C 4,4 C 88 % 997,7 hPa 0,0 l/m 0 min 0 min 0 W/m 23,0 km/h (4 Bft)
30.03.2015 04:48 6,3 C 3,9 C 88 % 997,8 hPa 0,0 l/m 0 min 0 min 0 W/m 20,9 km/h (4 Bft)
30.03.2015 04:50 6,3 C 3,9 C 88 % 997,8 hPa 0,0 l/m 0 min 0 min 0 W/m 14,6 km/h (3 Bft)
30.03.2015 04:52 6,3 C 3,9 C 88 % 997,8 hPa 0,0 l/m 0 min 0 min 0 W/m 20,9 km/h (4 Bft)
30.03.2015 04:54 6,3 C 4,4 C 88 % 997,7 hPa 0,0 l/m 0 min 0 min 0 W/m 20,9 km/h (4 Bft)
30.03.2015 04:56 6,3 C 3,9 C 88 % 997,8 hPa 0,0 l/m 0 min 0 min 0 W/m 23,0 km/h (4 Bft)
30.03.2015 04:58 6,3 C 3,9 C 88 % 997,8 hPa 0,0 l/m 0 min 0 min 0 W/m 31,4 km/h (5 Bft)
30.03.2015 05:00 6,3 C 4,4 C 88 % 997,7 hPa 0,0 l/m 0 min 0 min 0 W/m 20,9 km/h (4 Bft)
30.03.2015 05:02 6,3 C 3,9 C 88 % 997,8 hPa 0,0 l/m 0 min 0 min 0 W/m 20,9 km/h (4 Bft)
30.03.2015 05:04 6,2 C 3,9 C 88 % 997,8 hPa 0,0 l/m 0 min 0 min 0 W/m 25,1 km/h (4 Bft)
30.03.2015 05:06 6,2 C 3,9 C 88 % 997,9 hPa 0,0 l/m 0 min 0 min 0 W/m 31,4 km/h (5 Bft)
30.03.2015 05:08 6,2 C 4,4 C 88 % 997,8 hPa 0,0 l/m 0 min 0 min 0 W/m 41,8 km/h (6 Bft)
30.03.2015 05:10 6,2 C 4,4 C 88 % 997,9 hPa 0,0 l/m 0 min 0 min 0 W/m 27,2 km/h (4 Bft)
30.03.2015 05:12 6,2 C 4,4 C 88 % 997,9 hPa 0,0 l/m 0 min 0 min 0 W/m 31,4 km/h (5 Bft)
30.03.2015 05:14 6,3 C 4,4 C 88 % 998,0 hPa 0,0 l/m 0 min 0 min 0 W/m 41,8 km/h (6 Bft)
30.03.2015 05:16 6,3 C 4,4 C 87 % 998,0 hPa 0,0 l/m 0 min 0 min 0 W/m 29,3 km/h (5 Bft)
30.03.2015 05:18 6,3 C 4,4 C 87 % 998,0 hPa 0,0 l/m 0 min 0 min 0 W/m 27,2 km/h (4 Bft)
30.03.2015 05:20 6,3 C 3,9 C 87 % 998,0 hPa 0,0 l/m 0 min 0 min 0 W/m 25,1 km/h (4 Bft)
30.03.2015 05:22 6,3 C 3,9 C 87 % 998,0 hPa 0,0 l/m 0 min 0 min 0 W/m 31,4 km/h (5 Bft)
30.03.2015 05:24 6,3 C 3,9 C 87 % 998,0 hPa 0,0 l/m 0 min 0 min 0 W/m 25,1 km/h (4 Bft)
30.03.2015 05:26 6,3 C 4,4 C 87 % 998,0 hPa 0,0 l/m 0 min 0 min 0 W/m 35,6 km/h (5 Bft)
30.03.2015 05:28 6,3 C 4,4 C 87 % 998,0 hPa 0,0 l/m 0 min 0 min 0 W/m 33,5 km/h (5 Bft)
30.03.2015 05:30 6,3 C 3,9 C 87 % 998,0 hPa 0,0 l/m 0 min 0 min 0 W/m 29,3 km/h (5 Bft)
30.03.2015 05:32 6,3 C 3,9 C 86 % 998,0 hPa 0,0 l/m 0 min 0 min 0 W/m 25,1 km/h (4 Bft)
30.03.2015 05:34 6,3 C 3,9 C 86 % 998,1 hPa 0,0 l/m 0 min 0 min 0 W/m 23,0 km/h (4 Bft)
30.03.2015 05:36 6,3 C 3,9 C 86 % 998,1 hPa 0,0 l/m 0 min 0 min 0 W/m 25,1 km/h (4 Bft)
30.03.2015 05:38 6,3 C 3,9 C 86 % 998,1 hPa 0,0 l/m 0 min 0 min 0 W/m 33,5 km/h (5 Bft)
30.03.2015 05:40 6,3 C 3,9 C 86 % 998,1 hPa 0,0 l/m 0 min 0 min 0 W/m 25,1 km/h (4 Bft)
30.03.2015 05:42 6,3 C 3,9 C 86 % 998,1 hPa 0,0 l/m 0 min 0 min 0 W/m 23,0 km/h (4 Bft)
30.03.2015 05:44 6,2 C 3,9 C 86 % 998,2 hPa 0,0 l/m 0 min 0 min 0 W/m 18,8 km/h (3 Bft)
30.03.2015 05:46 6,2 C 3,9 C 86 % 998,2 hPa 0,0 l/m 0 min 0 min 0 W/m 37,7 km/h (5 Bft)
30.03.2015 05:48 6,2 C 3,9 C 86 % 998,3 hPa 0,0 l/m 0 min 0 min 0 W/m 33,5 km/h (5 Bft)
30.03.2015 05:50 6,2 C 3,9 C 86 % 998,3 hPa 0,0 l/m 0 min 0 min 0 W/m 35,6 km/h (5 Bft)
30.03.2015 05:52 6,2 C 3,9 C 86 % 998,3 hPa 0,0 l/m 0 min 0 min 0 W/m 33,5 km/h (5 Bft)
30.03.2015 05:54 6,2 C 3,9 C 86 % 998,3 hPa 0,0 l/m 0 min 0 min 0 W/m 25,1 km/h (4 Bft)
30.03.2015 05:56 6,2 C 3,9 C 86 % 998,4 hPa 0,0 l/m 0 min 0 min 0 W/m 27,2 km/h (4 Bft)
30.03.2015 05:58 6,2 C 3,9 C 86 % 998,4 hPa 0,0 l/m 0 min 0 min 0 W/m 20,9 km/h (4 Bft)
30.03.2015 06:00 6,2 C 3,9 C 86 % 998,5 hPa 0,0 l/m 0 min 0 min 0 W/m 18,8 km/h (3 Bft)
30.03.2015 06:02 6,2 C 3,9 C 86 % 998,5 hPa 0,0 l/m 0 min 0 min 0 W/m 20,9 km/h (4 Bft)
30.03.2015 06:06 6,1 C 3,9 C 86 % 998,5 hPa 0,0 l/m 0 min 0 min 0 W/m 27,2 km/h (4 Bft)
30.03.2015 06:08 6,1 C 3,9 C 86 % 998,6 hPa 0,0 l/m 0 min 0 min 0 W/m 29,3 km/h (5 Bft)
30.03.2015 06:10 6,1 C 3,9 C 86 % 998,6 hPa 0,0 l/m 0 min 0 min 0 W/m 29,3 km/h (5 Bft)
30.03.2015 06:12 6,1 C 3,9 C 86 % 998,6 hPa 0,0 l/m 0 min 0 min 0 W/m 29,3 km/h (5 Bft)
30.03.2015 06:14 6,1 C 3,9 C 86 % 998,6 hPa 0,0 l/m 0 min 0 min 0 W/m 27,2 km/h (4 Bft)
30.03.2015 06:16 6,1 C 3,9 C 86 % 998,6 hPa 0,0 l/m 0 min 0 min 0 W/m 33,5 km/h (5 Bft)
30.03.2015 06:18 6,1 C 3,9 C 86 % 998,6 hPa 0,0 l/m 0 min 0 min 0 W/m 27,2 km/h (4 Bft)
30.03.2015 06:20 6,1 C 3,9 C 86 % 998,6 hPa 0,0 l/m 0 min 0 min 0 W/m 23,0 km/h (4 Bft)
30.03.2015 06:22 6,1 C 3,9 C 86 % 998,6 hPa 0,0 l/m 0 min 0 min 0 W/m 25,1 km/h (4 Bft)
30.03.2015 06:24 6,1 C 3,9 C 86 % 998,6 hPa 0,0 l/m 0 min 0 min 0 W/m 27,2 km/h (4 Bft)
30.03.2015 06:26 6,0 C 3,9 C 86 % 998,6 hPa 0,0 l/m 0 min 0 min 0 W/m 25,1 km/h (4 Bft)
30.03.2015 06:28 6,0 C 3,9 C 86 % 998,7 hPa 0,0 l/m 0 min 0 min 0 W/m 20,9 km/h (4 Bft)
30.03.2015 06:30 6,0 C 3,9 C 87 % 998,7 hPa 0,0 l/m 0 min 0 min 0 W/m 33,5 km/h (5 Bft)
30.03.2015 06:32 5,9 C 3,9 C 86 % 998,7 hPa 0,0 l/m 0 min 0 min 0 W/m 29,3 km/h (5 Bft)
30.03.2015 06:34 5,9 C 3,9 C 86 % 998,8 hPa 0,0 l/m 0 min 0 min 0 W/m 29,3 km/h (5 Bft)
30.03.2015 06:36 5,9 C 3,9 C 86 % 998,7 hPa 0,0 l/m 0 min 0 min 0 W/m 20,9 km/h (4 Bft)
30.03.2015 06:38 5,9 C 3,9 C 86 % 998,7 hPa 0,0 l/m 0 min 0 min 0 W/m 18,8 km/h (3 Bft)
30.03.2015 06:40 5,9 C 3,9 C 86 % 998,9 hPa 0,0 l/m 0 min 0 min 0 W/m 27,2 km/h (4 Bft)
30.03.2015 06:42 5,9 C 3,9 C 86 % 998,8 hPa 0,0 l/m 0 min 0 min 0 W/m 27,2 km/h (4 Bft)
30.03.2015 06:44 5,9 C 3,9 C 86 % 998,8 hPa 0,0 l/m 0 min 0 min 0 W/m 27,2 km/h (4 Bft)
30.03.2015 06:46 5,8 C 3,9 C 86 % 998,9 hPa 0,0 l/m 0 min 0 min 0 W/m 31,4 km/h (5 Bft)
30.03.2015 06:48 5,8 C 3,9 C 86 % 999,0 hPa 0,0 l/m 0 min 0 min 0 W/m 25,1 km/h (4 Bft)
30.03.2015 06:50 5,8 C 3,9 C 86 % 998,9 hPa 0,0 l/m 0 min 0 min 0 W/m 27,2 km/h (4 Bft)
30.03.2015 06:52 5,8 C 3,9 C 86 % 999,0 hPa 0,0 l/m 0 min 0 min 0 W/m 31,4 km/h (5 Bft)
30.03.2015 06:54 5,8 C 3,9 C 86 % 999,0 hPa 0,0 l/m 0 min 0 min 0 W/m 25,1 km/h (4 Bft)
30.03.2015 06:56 5,8 C 3,9 C 86 % 999,0 hPa 0,0 l/m 0 min 0 min 0 W/m 35,6 km/h (5 Bft)
30.03.2015 06:58 5,8 C 3,9 C 86 % 999,1 hPa 0,0 l/m 0 min 0 min 0 W/m 16,7 km/h (3 Bft)
30.03.2015 07:00 5,8 C 3,9 C 86 % 999,2 hPa 0,0 l/m 0 min 0 min 0 W/m 23,0 km/h (4 Bft)
30.03.2015 07:02 5,8 C 3,9 C 85 % 999,2 hPa 0,0 l/m 0 min 0 min 0 W/m 31,4 km/h (5 Bft)
30.03.2015 07:04 5,8 C 3,9 C 85 % 999,3 hPa 0,0 l/m 0 min 0 min 0 W/m 14,6 km/h (3 Bft)
30.03.2015 07:06 5,8 C 3,9 C 85 % 999,3 hPa 0,0 l/m 0 min 0 min 0 W/m 23,0 km/h (4 Bft)
30.03.2015 07:08 5,8 C 3,9 C 85 % 999,3 hPa 0,0 l/m 0 min 0 min 0 W/m 18,8 km/h (3 Bft)
30.03.2015 07:10 5,8 C 3,9 C 85 % 999,4 hPa 0,0 l/m 0 min 0 min 1 W/m 25,1 km/h (4 Bft)
30.03.2015 07:12 5,8 C 3,9 C 85 % 999,4 hPa 0,0 l/m 0 min 0 min 5 W/m 20,9 km/h (4 Bft)
30.03.2015 07:14 5,8 C 3,9 C 85 % 999,4 hPa 0,0 l/m 0 min 0 min 5 W/m 23,0 km/h (4 Bft)
30.03.2015 07:16 5,8 C 3,9 C 85 % 999,4 hPa 0,0 l/m 0 min 0 min 5 W/m 18,8 km/h (3 Bft)
30.03.2015 07:18 5,7 C 3,9 C 85 % 999,4 hPa 0,0 l/m 0 min 0 min 7 W/m 20,9 km/h (4 Bft)
30.03.2015 07:20 5,7 C 3,9 C 85 % 999,5 hPa 0,0 l/m 0 min 0 min 7 W/m 20,9 km/h (4 Bft)
30.03.2015 07:22 5,7 C 3,9 C 85 % 999,6 hPa 0,0 l/m 0 min 0 min 10 W/m 18,8 km/h (3 Bft)
30.03.2015 07:24 5,7 C 3,9 C 85 % 999,7 hPa 0,0 l/m 0 min 0 min 12 W/m 20,9 km/h (4 Bft)
30.03.2015 07:26 5,7 C 3,9 C 85 % 999,7 hPa 0,0 l/m 2 min 0 min 11 W/m 18,8 km/h (3 Bft)
30.03.2015 07:28 5,7 C 3,9 C 85 % 999,7 hPa 0,0 l/m 2 min 0 min 11 W/m 20,9 km/h (4 Bft)
30.03.2015 07:30 5,7 C 3,9 C 85 % 999,6 hPa 0,0 l/m 0 min 0 min 11 W/m 16,7 km/h (3 Bft)
30.03.2015 07:32 5,7 C 3,9 C 85 % 999,6 hPa 0,0 l/m 0 min 0 min 12 W/m 25,1 km/h (4 Bft)
30.03.2015 07:34 5,8 C 3,9 C 85 % 999,6 hPa 0,0 l/m 0 min 0 min 13 W/m 20,9 km/h (4 Bft)
30.03.2015 07:36 5,8 C 3,9 C 85 % 999,6 hPa 0,0 l/m 0 min 0 min 15 W/m 23,0 km/h (4 Bft)
30.03.2015 07:38 5,8 C 3,9 C 86 % 999,6 hPa 0,0 l/m 0 min 0 min 16 W/m 20,9 km/h (4 Bft)
30.03.2015 07:40 5,8 C 3,9 C 86 % 999,7 hPa 0,0 l/m 0 min 0 min 18 W/m 20,9 km/h (4 Bft)
30.03.2015 07:42 5,8 C 4,4 C 86 % 999,7 hPa 0,0 l/m 0 min 0 min 19 W/m 27,2 km/h (4 Bft)
30.03.2015 07:44 5,8 C 4,4 C 86 % 999,7 hPa 0,0 l/m 0 min 0 min 20 W/m 29,3 km/h (5 Bft)
30.03.2015 07:46 5,8 C 4,4 C 86 % 999,8 hPa 0,0 l/m 0 min 0 min 22 W/m 25,1 km/h (4 Bft)
30.03.2015 07:48 5,8 C 4,4 C 86 % 999,8 hPa 0,0 l/m 0 min 0 min 24 W/m 25,1 km/h (4 Bft)
30.03.2015 07:50 5,8 C 4,4 C 86 % 999,8 hPa 0,0 l/m 0 min 0 min 26 W/m 12,6 km/h (3 Bft)
30.03.2015 07:52 5,9 C 4,4 C 86 % 999,8 hPa 0,0 l/m 0 min 0 min 29 W/m 29,3 km/h (5 Bft)
30.03.2015 07:54 5,9 C 4,4 C 86 % 1000,0 hPa 0,0 l/m 0 min 0 min 32 W/m 29,3 km/h (5 Bft)
30.03.2015 07:56 5,9 C 4,4 C 86 % 1000,0 hPa 0,0 l/m 0 min 0 min 33 W/m 33,5 km/h (5 Bft)
30.03.2015 07:58 6,0 C 4,4 C 86 % 1000,0 hPa 0,0 l/m 0 min 0 min 33 W/m 31,4 km/h (5 Bft)
30.03.2015 08:00 6,1 C 4,4 C 86 % 1000,0 hPa 0,0 l/m 0 min 0 min 31 W/m 25,1 km/h (4 Bft)
30.03.2015 08:02 6,1 C 4,4 C 86 % 1000,0 hPa 0,0 l/m 0 min 0 min 31 W/m 25,1 km/h (4 Bft)
30.03.2015 08:04 6,1 C 4,4 C 86 % 1000,0 hPa 0,0 l/m 0 min 0 min 35 W/m 20,9 km/h (4 Bft)
30.03.2015 08:06 6,1 C 5,0 C 86 % 1000,1 hPa 0,0 l/m 0 min 0 min 40 W/m 33,5 km/h (5 Bft)
30.03.2015 08:08 6,2 C 5,0 C 86 % 1000,2 hPa 0,0 l/m 0 min 0 min 45 W/m 29,3 km/h (5 Bft)
30.03.2015 08:10 6,2 C 5,0 C 86 % 1000,2 hPa 0,0 l/m 0 min 0 min 47 W/m 25,1 km/h (4 Bft)
30.03.2015 08:12 6,2 C 5,0 C 86 % 1000,2 hPa 0,0 l/m 0 min 0 min 47 W/m 29,3 km/h (5 Bft)
30.03.2015 08:14 6,2 C 5,0 C 86 % 1000,3 hPa 0,0 l/m 0 min 0 min 49 W/m 29,3 km/h (5 Bft)
30.03.2015 08:16 6,3 C 5,0 C 86 % 1000,4 hPa 0,0 l/m 0 min 0 min 55 W/m 29,3 km/h (5 Bft)
30.03.2015 08:18 6,3 C 5,0 C 86 % 1000,4 hPa 0,0 l/m 0 min 0 min 61 W/m 23,0 km/h (4 Bft)
30.03.2015 08:20 6,3 C 5,0 C 86 % 1000,3 hPa 0,0 l/m 0 min 0 min 69 W/m 23,0 km/h (4 Bft)
30.03.2015 08:22 6,3 C 5,0 C 86 % 1000,5 hPa 0,0 l/m 0 min 0 min 69 W/m 23,0 km/h (4 Bft)
30.03.2015 08:24 6,3 C 5,0 C 86 % 1000,5 hPa 0,0 l/m 0 min 0 min 48 W/m 18,8 km/h (3 Bft)
30.03.2015 08:26 6,4 C 5,0 C 86 % 1000,5 hPa 0,0 l/m 0 min 0 min 56 W/m 25,1 km/h (4 Bft)
30.03.2015 08:28 6,4 C 5,0 C 86 % 1000,5 hPa 0,0 l/m 0 min 0 min 74 W/m 29,3 km/h (5 Bft)
30.03.2015 08:30 6,4 C 5,0 C 86 % 1000,6 hPa 0,0 l/m 0 min 0 min 54 W/m 31,4 km/h (5 Bft)
30.03.2015 08:32 6,4 C 5,0 C 86 % 1000,6 hPa 0,0 l/m 0 min 0 min 50 W/m 20,9 km/h (4 Bft)
30.03.2015 08:34 6,4 C 5,0 C 86 % 1000,6 hPa 0,0 l/m 0 min 0 min 55 W/m 27,2 km/h (4 Bft)
30.03.2015 08:36 6,4 C 5,0 C 86 % 1000,6 hPa 0,0 l/m 0 min 0 min 55 W/m 39,7 km/h (6 Bft)
30.03.2015 08:38 6,4 C 5,0 C 86 % 1000,6 hPa 0,0 l/m 0 min 0 min 81 W/m 27,2 km/h (4 Bft)
30.03.2015 08:40 6,4 C 5,0 C 85 % 1000,6 hPa 0,0 l/m 0 min 0 min 94 W/m 33,5 km/h (5 Bft)
30.03.2015 08:42 6,5 C 5,6 C 85 % 1000,7 hPa 0,0 l/m 2 min 0 min 227 W/m 18,8 km/h (3 Bft)
30.03.2015 08:44 6,6 C 5,6 C 85 % 1000,7 hPa 0,0 l/m 2 min 0 min 266 W/m 23,0 km/h (4 Bft)
30.03.2015 08:46 6,6 C 5,6 C 85 % 1000,7 hPa 0,0 l/m 2 min 0 min 278 W/m 31,4 km/h (5 Bft)
30.03.2015 08:48 6,7 C 5,6 C 85 % 1000,7 hPa 0,0 l/m 2 min 0 min 264 W/m 25,1 km/h (4 Bft)
30.03.2015 08:50 6,7 C 5,6 C 85 % 1000,7 hPa 0,0 l/m 2 min 0 min 258 W/m 33,5 km/h (5 Bft)
30.03.2015 08:52 6,8 C 6,1 C 85 % 1000,7 hPa 0,0 l/m 2 min 0 min 209 W/m 27,2 km/h (4 Bft)
30.03.2015 08:54 6,8 C 6,1 C 85 % 1000,7 hPa 0,0 l/m 0 min 0 min 118 W/m 27,2 km/h (4 Bft)
30.03.2015 08:56 6,9 C 6,1 C 85 % 1000,7 hPa 0,0 l/m 0 min 0 min 98 W/m 23,0 km/h (4 Bft)
30.03.2015 08:58 6,9 C 6,1 C 85 % 1000,8 hPa 0,0 l/m 0 min 0 min 95 W/m 23,0 km/h (4 Bft)
30.03.2015 09:00 6,9 C 6,1 C 84 % 1000,8 hPa 0,0 l/m 0 min 0 min 97 W/m 37,7 km/h (5 Bft)
30.03.2015 09:02 6,9 C 5,6 C 84 % 1000,9 hPa 0,0 l/m 0 min 0 min 100 W/m 31,4 km/h (5 Bft)
30.03.2015 09:04 6,9 C 6,1 C 84 % 1001,0 hPa 0,0 l/m 0 min 0 min 119 W/m 50,2 km/h (7 Bft)
30.03.2015 09:06 6,9 C 6,1 C 83 % 1001,0 hPa 0,0 l/m 2 min 0 min 181 W/m 37,7 km/h (5 Bft)
30.03.2015 09:08 7,0 C 6,1 C 83 % 1001,1 hPa 0,0 l/m 2 min 0 min 209 W/m 35,6 km/h (5 Bft)
30.03.2015 09:10 7,1 C 6,1 C 83 % 1001,2 hPa 0,0 l/m 2 min 0 min 238 W/m 23,0 km/h (4 Bft)
30.03.2015 09:12 7,1 C 6,1 C 83 % 1001,3 hPa 0,0 l/m 0 min 0 min 113 W/m 25,1 km/h (4 Bft)
30.03.2015 09:14 7,1 C 6,1 C 82 % 1001,4 hPa 0,0 l/m 0 min 0 min 138 W/m 25,1 km/h (4 Bft)
30.03.2015 09:16 7,2 C 6,1 C 82 % 1001,4 hPa 0,0 l/m 2 min 0 min 176 W/m 31,4 km/h (5 Bft)
30.03.2015 09:18 7,2 C 6,1 C 82 % 1001,5 hPa 0,0 l/m 0 min 0 min 136 W/m 37,7 km/h (5 Bft)
30.03.2015 09:20 7,2 C 6,1 C 82 % 1001,4 hPa 0,0 l/m 0 min 0 min 105 W/m 27,2 km/h (4 Bft)
30.03.2015 09:22 7,2 C 6,1 C 82 % 1001,5 hPa 0,0 l/m 0 min 0 min 140 W/m 25,1 km/h (4 Bft)
30.03.2015 09:24 7,2 C 6,1 C 81 % 1001,5 hPa 0,0 l/m 2 min 0 min 170 W/m 37,7 km/h (5 Bft)
30.03.2015 09:26 7,3 C 6,1 C 81 % 1001,8 hPa 0,0 l/m 0 min 0 min 116 W/m 25,1 km/h (4 Bft)
30.03.2015 09:28 7,3 C 6,1 C 81 % 1001,9 hPa 0,0 l/m 0 min 0 min 112 W/m 27,2 km/h (4 Bft)
30.03.2015 09:30 7,3 C 6,1 C 81 % 1001,9 hPa 0,0 l/m 0 min 0 min 101 W/m 48,1 km/h (6 Bft)
30.03.2015 09:32 7,2 C 5,6 C 79 % 1001,9 hPa 0,0 l/m 0 min 0 min 127 W/m 43,9 km/h (6 Bft)
30.03.2015 09:34 7,2 C 6,1 C 78 % 1002,0 hPa 0,0 l/m 2 min 0 min 243 W/m 52,3 km/h (7 Bft)
30.03.2015 09:36 7,2 C 6,1 C 78 % 1001,9 hPa 0,0 l/m 2 min 0 min 367 W/m 41,8 km/h (6 Bft)
30.03.2015 09:38 7,2 C 6,1 C 76 % 1001,9 hPa 0,0 l/m 2 min 0 min 405 W/m 41,8 km/h (6 Bft)
30.03.2015 09:40 7,2 C 6,1 C 76 % 1002,0 hPa 0,0 l/m 2 min 0 min 303 W/m 35,6 km/h (5 Bft)
30.03.2015 09:42 7,3 C 6,1 C 75 % 1002,1 hPa 0,0 l/m 0 min 0 min 148 W/m 37,7 km/h (5 Bft)
30.03.2015 09:44 7,3 C 6,1 C 75 % 1002,2 hPa 0,0 l/m 0 min 0 min 148 W/m 41,8 km/h (6 Bft)
30.03.2015 09:46 7,3 C 6,1 C 75 % 1002,3 hPa 0,0 l/m 2 min 0 min 188 W/m 37,7 km/h (5 Bft)
30.03.2015 09:48 7,3 C 6,1 C 75 % 1002,3 hPa 0,0 l/m 0 min 0 min 176 W/m 39,7 km/h (6 Bft)
30.03.2015 09:50 7,3 C 6,1 C 75 % 1002,3 hPa 0,0 l/m 2 min 0 min 395 W/m 41,8 km/h (6 Bft)
30.03.2015 09:52 7,3 C 6,1 C 75 % 1002,3 hPa 0,0 l/m 2 min 0 min 264 W/m 41,8 km/h (6 Bft)
30.03.2015 09:54 7,3 C 6,1 C 75 % 1002,3 hPa 0,0 l/m 2 min 0 min 476 W/m 41,8 km/h (6 Bft)
30.03.2015 09:56 7,4 C 6,1 C 75 % 1002,3 hPa 0,0 l/m 2 min 0 min 475 W/m 33,5 km/h (5 Bft)
30.03.2015 09:58 7,4 C 6,1 C 75 % 1002,4 hPa 0,0 l/m 2 min 0 min 496 W/m 48,1 km/h (6 Bft)
30.03.2015 10:00 7,4 C 6,7 C 74 % 1002,5 hPa 0,0 l/m 2 min 0 min 504 W/m 39,7 km/h (6 Bft)
30.03.2015 10:02 7,5 C 6,1 C 74 % 1002,7 hPa 0,0 l/m 2 min 0 min 340 W/m 52,3 km/h (7 Bft)
30.03.2015 10:04 7,6 C 6,1 C 73 % 1002,6 hPa 0,0 l/m 2 min 0 min 309 W/m 41,8 km/h (6 Bft)
30.03.2015 10:06 7,6 C 6,1 C 73 % 1002,6 hPa 0,0 l/m 2 min 0 min 471 W/m 39,7 km/h (6 Bft)
30.03.2015 10:08 7,7 C 6,7 C 74 % 1002,4 hPa 0,0 l/m 2 min 0 min 497 W/m 43,9 km/h (6 Bft)
30.03.2015 10:10 7,7 C 6,7 C 74 % 1002,6 hPa 0,0 l/m 2 min 0 min 512 W/m 50,2 km/h (7 Bft)
30.03.2015 10:12 7,8 C 6,7 C 74 % 1002,5 hPa 0,0 l/m 2 min 0 min 516 W/m 41,8 km/h (6 Bft)
30.03.2015 10:14 7,8 C 6,7 C 74 % 1002,6 hPa 0,0 l/m 2 min 0 min 234 W/m 43,9 km/h (6 Bft)
30.03.2015 10:16 7,9 C 7,2 C 74 % 1002,7 hPa 0,0 l/m 2 min 0 min 585 W/m 41,8 km/h (6 Bft)
30.03.2015 10:18 7,9 C 7,2 C 74 % 1002,8 hPa 0,0 l/m 2 min 0 min 538 W/m 41,8 km/h (6 Bft)
30.03.2015 10:20 8,0 C 7,2 C 74 % 1002,8 hPa 0,0 l/m 0 min 0 min 220 W/m 29,3 km/h (5 Bft)
30.03.2015 10:22 8,1 C 7,2 C 74 % 1002,8 hPa 0,0 l/m 0 min 0 min 196 W/m 37,7 km/h (5 Bft)
30.03.2015 10:24 8,1 C 6,7 C 74 % 1002,9 hPa 0,0 l/m 0 min 0 min 148 W/m 41,8 km/h (6 Bft)
30.03.2015 10:26 8,0 C 6,7 C 73 % 1002,9 hPa 0,0 l/m 0 min 0 min 127 W/m 37,7 km/h (5 Bft)
30.03.2015 10:28 7,9 C 6,7 C 73 % 1003,0 hPa 0,0 l/m 0 min 0 min 178 W/m 25,1 km/h (4 Bft)
30.03.2015 10:30 8,0 C 6,7 C 73 % 1003,1 hPa 0,0 l/m 2 min 0 min 557 W/m 29,3 km/h (5 Bft)
30.03.2015 10:32 8,0 C 6,7 C 73 % 1003,0 hPa 0,0 l/m 2 min 0 min 543 W/m 43,9 km/h (6 Bft)
30.03.2015 10:34 8,0 C 6,7 C 72 % 1003,2 hPa 0,0 l/m 2 min 0 min 551 W/m 43,9 km/h (6 Bft)
30.03.2015 10:36 8,1 C 7,2 C 71 % 1003,2 hPa 0,0 l/m 2 min 0 min 565 W/m 31,4 km/h (5 Bft)
30.03.2015 10:38 8,2 C 6,7 C 72 % 1003,3 hPa 0,0 l/m 2 min 0 min 297 W/m 23,0 km/h (4 Bft)
30.03.2015 10:40 8,2 C 7,2 C 72 % 1003,4 hPa 0,0 l/m 2 min 0 min 487 W/m 29,3 km/h (5 Bft)
30.03.2015 10:42 8,3 C 7,2 C 72 % 1003,4 hPa 0,0 l/m 2 min 0 min 617 W/m 43,9 km/h (6 Bft)
30.03.2015 10:44 8,3 C 7,8 C 71 % 1003,4 hPa 0,0 l/m 2 min 0 min 617 W/m 39,7 km/h (6 Bft)
30.03.2015 10:46 8,4 C 7,8 C 71 % 1003,4 hPa 0,0 l/m 2 min 0 min 617 W/m 37,7 km/h (5 Bft)
30.03.2015 10:48 8,4 C 7,8 C 71 % 1003,4 hPa 0,0 l/m 2 min 0 min 617 W/m 31,4 km/h (5 Bft)
30.03.2015 10:50 8,5 C 7,8 C 71 % 1003,4 hPa 0,0 l/m 2 min 0 min 401 W/m 31,4 km/h (5 Bft)
30.03.2015 10:52 8,6 C 7,8 C 71 % 1003,4 hPa 0,0 l/m 2 min 0 min 482 W/m 50,2 km/h (7 Bft)
30.03.2015 10:54 8,7 C 7,8 C 70 % 1003,6 hPa 0,0 l/m 2 min 0 min 715 W/m 41,8 km/h (6 Bft)
30.03.2015 10:56 8,7 C 7,8 C 70 % 1003,5 hPa 0,0 l/m 2 min 0 min 341 W/m 39,7 km/h (6 Bft)
30.03.2015 10:58 8,7 C 7,8 C 70 % 1003,5 hPa 0,0 l/m 0 min 0 min 191 W/m 46,0 km/h (6 Bft)
30.03.2015 11:00 8,7 C 7,8 C 69 % 1003,5 hPa 0,0 l/m 2 min 0 min 358 W/m 39,7 km/h (6 Bft)
30.03.2015 11:02 8,7 C 7,8 C 69 % 1003,6 hPa 0,0 l/m 2 min 0 min 676 W/m 35,6 km/h (5 Bft)
30.03.2015 11:04 8,7 C 7,8 C 68 % 1003,7 hPa 0,0 l/m 2 min 0 min 659 W/m 41,8 km/h (6 Bft)
30.03.2015 11:06 8,8 C 7,8 C 68 % 1003,6 hPa 0,0 l/m 2 min 0 min 513 W/m 46,0 km/h (6 Bft)
30.03.2015 11:08 8,8 C 8,3 C 68 % 1003,6 hPa 0,0 l/m 0 min 0 min 257 W/m 33,5 km/h (5 Bft)
30.03.2015 11:10 8,8 C 8,3 C 68 % 1003,7 hPa 0,0 l/m 0 min 0 min 257 W/m 41,8 km/h (6 Bft)
30.03.2015 11:12 8,8 C 7,8 C 68 % 1003,7 hPa 0,0 l/m 0 min 0 min 228 W/m 35,6 km/h (5 Bft)
30.03.2015 11:14 8,8 C 7,8 C 67 % 1003,7 hPa 0,0 l/m 0 min 0 min 193 W/m 35,6 km/h (5 Bft)
30.03.2015 11:16 8,8 C 7,8 C 67 % 1003,8 hPa 0,0 l/m 2 min 0 min 480 W/m 54,4 km/h (7 Bft)
30.03.2015 11:18 8,8 C 7,8 C 68 % 1003,8 hPa 0,0 l/m 2 min 0 min 684 W/m 39,7 km/h (6 Bft)
30.03.2015 11:20 8,8 C 8,3 C 68 % 1003,7 hPa 0,0 l/m 2 min 0 min 713 W/m 41,8 km/h (6 Bft)
30.03.2015 11:22 8,9 C 8,3 C 68 % 1004,0 hPa 0,0 l/m 2 min 0 min 724 W/m 41,8 km/h (6 Bft)
30.03.2015 11:24 8,9 C 7,8 C 67 % 1003,7 hPa 0,0 l/m 0 min 0 min 272 W/m 39,7 km/h (6 Bft)
30.03.2015 11:26 8,9 C 7,8 C 65 % 1004,0 hPa 0,0 l/m 0 min 0 min 200 W/m 43,9 km/h (6 Bft)
30.03.2015 11:28 8,8 C 7,8 C 66 % 1004,1 hPa 0,0 l/m 0 min 0 min 213 W/m 37,7 km/h (5 Bft)
30.03.2015 11:30 8,8 C 8,3 C 67 % 1004,1 hPa 0,0 l/m 0 min 0 min 213 W/m 29,3 km/h (5 Bft)
30.03.2015 11:32 8,8 C 8,3 C 67 % 1004,2 hPa 0,0 l/m 0 min 0 min 270 W/m 41,8 km/h (6 Bft)
30.03.2015 11:34 8,8 C 8,3 C 67 % 1004,1 hPa 0,0 l/m 0 min 0 min 262 W/m 52,3 km/h (7 Bft)
30.03.2015 11:36 8,8 C 7,8 C 67 % 1004,1 hPa 0,0 l/m 2 min 0 min 309 W/m 43,9 km/h (6 Bft)
30.03.2015 11:38 8,8 C 7,8 C 67 % 1004,0 hPa 0,0 l/m 0 min 0 min 189 W/m 41,8 km/h (6 Bft)
30.03.2015 11:40 8,7 C 7,2 C 68 % 1004,1 hPa 0,0 l/m 0 min 2 min 175 W/m 29,3 km/h (5 Bft)
30.03.2015 11:42 8,7 C 7,2 C 69 % 1004,2 hPa 0,0 l/m 0 min 2 min 255 W/m 20,9 km/h (4 Bft)
30.03.2015 11:44 8,7 C 7,2 C 70 % 1004,2 hPa 0,0 l/m 2 min 2 min 323 W/m 27,2 km/h (4 Bft)
30.03.2015 11:46 8,7 C 7,2 C 70 % 1004,2 hPa 0,0 l/m 0 min 0 min 274 W/m 29,3 km/h (5 Bft)
30.03.2015 11:48 8,6 C 7,2 C 70 % 1004,2 hPa 0,0 l/m 0 min 0 min 226 W/m 43,9 km/h (6 Bft)
30.03.2015 11:50 8,5 C 7,2 C 70 % 1004,1 hPa 0,0 l/m 0 min 0 min 284 W/m 35,6 km/h (5 Bft)
30.03.2015 11:52 8,5 C 7,2 C 70 % 1004,3 hPa 0,0 l/m 0 min 0 min 280 W/m 43,9 km/h (6 Bft)
30.03.2015 11:54 8,4 C 7,2 C 71 % 1004,2 hPa 0,0 l/m 2 min 2 min 359 W/m 39,7 km/h (6 Bft)
30.03.2015 11:56 8,4 C 7,2 C 72 % 1004,3 hPa 0,0 l/m 0 min 2 min 299 W/m 41,8 km/h (6 Bft)
30.03.2015 11:58 8,3 C 6,7 C 72 % 1004,4 hPa 0,0 l/m 0 min 2 min 167 W/m 48,1 km/h (6 Bft)
30.03.2015 12:00 8,2 C 6,7 C 72 % 1004,5 hPa 0,0 l/m 0 min 2 min 182 W/m 41,8 km/h (6 Bft)
30.03.2015 12:02 8,1 C 6,1 C 73 % 1004,7 hPa 0,0 l/m 0 min 2 min 130 W/m 35,6 km/h (5 Bft)
30.03.2015 12:06 7,8 C 5,0 C 75 % 1004,6 hPa 0,0 l/m 0 min 2 min 90 W/m 43,9 km/h (6 Bft)
30.03.2015 12:08 7,6 C 4,4 C 76 % 1004,7 hPa 0,0 l/m 0 min 2 min 108 W/m 39,7 km/h (6 Bft)
30.03.2015 12:10 7,4 C 4,4 C 78 % 1004,8 hPa 0,0 l/m 0 min 2 min 222 W/m 37,7 km/h (5 Bft)
30.03.2015 12:12 7,2 C 4,4 C 79 % 1004,6 hPa 0,0 l/m 0 min 2 min 234 W/m 43,9 km/h (6 Bft)
30.03.2015 12:14 7,1 C 4,4 C 79 % 1004,7 hPa 0,0 l/m 0 min 2 min 195 W/m 35,6 km/h (5 Bft)
30.03.2015 12:16 7,0 C 5,6 C 81 % 1004,7 hPa 0,0 l/m 2 min 2 min 524 W/m 27,2 km/h (4 Bft)
30.03.2015 12:18 7,0 C 5,6 C 81 % 1004,6 hPa 0,0 l/m 2 min 2 min 677 W/m 29,3 km/h (5 Bft)
30.03.2015 12:20 7,0 C 5,6 C 81 % 1004,7 hPa 0,0 l/m 2 min 0 min 389 W/m 52,3 km/h (7 Bft)
30.03.2015 12:22 6,9 C 5,6 C 82 % 1004,8 hPa 0,0 l/m 2 min 0 min 316 W/m 35,6 km/h (5 Bft)
30.03.2015 12:24 6,9 C 5,6 C 81 % 1004,7 hPa 0,0 l/m 2 min 0 min 377 W/m 33,5 km/h (5 Bft)
30.03.2015 12:26 7,1 C 6,1 C 82 % 1004,8 hPa 0,0 l/m 2 min 0 min 664 W/m 29,3 km/h (5 Bft)
30.03.2015 12:28 7,2 C 6,7 C 83 % 1004,9 hPa 0,0 l/m 2 min 0 min 685 W/m 27,2 km/h (4 Bft)
30.03.2015 12:30 7,4 C 7,2 C 82 % 1005,1 hPa 0,0 l/m 2 min 0 min 707 W/m 33,5 km/h (5 Bft)
30.03.2015 12:32 7,6 C 7,2 C 82 % 1005,1 hPa 0,0 l/m 2 min 0 min 771 W/m 50,2 km/h (7 Bft)
30.03.2015 12:34 7,7 C 7,8 C 80 % 1005,1 hPa 0,0 l/m 2 min 0 min 814 W/m 46,0 km/h (6 Bft)
30.03.2015 12:36 7,9 C 8,3 C 80 % 1005,2 hPa 0,0 l/m 2 min 0 min 909 W/m 29,3 km/h (5 Bft)
30.03.2015 12:38 8,2 C 8,9 C 80 % 1005,2 hPa 0,0 l/m 2 min 0 min 970 W/m 41,8 km/h (6 Bft)
30.03.2015 12:40 8,3 C 8,3 C 79 % 1005,2 hPa 0,0 l/m 2 min 0 min 421 W/m 39,7 km/h (6 Bft)
30.03.2015 12:42 8,4 C 7,8 C 79 % 1005,2 hPa 0,0 l/m 0 min 2 min 231 W/m 50,2 km/h (7 Bft)
30.03.2015 12:44 8,5 C 7,8 C 77 % 1005,2 hPa 0,0 l/m 0 min 0 min 177 W/m 33,5 km/h (5 Bft)
30.03.2015 12:46 8,6 C 7,2 C 77 % 1005,2 hPa 0,0 l/m 0 min 0 min 105 W/m 18,8 km/h (3 Bft)
30.03.2015 12:48 8,5 C 7,2 C 77 % 1005,2 hPa 0,0 l/m 0 min 0 min 119 W/m 31,4 km/h (5 Bft)
30.03.2015 12:50 8,4 C 7,2 C 77 % 1005,2 hPa 0,0 l/m 0 min 0 min 236 W/m 48,1 km/h (6 Bft)
30.03.2015 12:52 8,3 C 7,2 C 77 % 1005,4 hPa 0,0 l/m 2 min 0 min 350 W/m 41,8 km/h (6 Bft)
30.03.2015 12:54 8,3 C 7,8 C 77 % 1005,4 hPa 0,0 l/m 2 min 0 min 627 W/m 37,7 km/h (5 Bft)
30.03.2015 12:56 8,3 C 7,8 C 78 % 1005,6 hPa 0,0 l/m 2 min 0 min 843 W/m 46,0 km/h (6 Bft)
30.03.2015 12:58 8,4 C 7,8 C 77 % 1005,5 hPa 0,0 l/m 2 min 0 min 776 W/m 43,9 km/h (6 Bft)
30.03.2015 13:00 8,4 C 7,8 C 77 % 1005,4 hPa 0,0 l/m 2 min 0 min 533 W/m 43,9 km/h (6 Bft)
30.03.2015 13:02 8,5 C 8,3 C 77 % 1005,5 hPa 0,0 l/m 2 min 0 min 673 W/m 31,4 km/h (5 Bft)
30.03.2015 13:04 8,6 C 8,3 C 76 % 1005,3 hPa 0,0 l/m 2 min 0 min 646 W/m 31,4 km/h (5 Bft)
30.03.2015 13:06 8,7 C 8,3 C 76 % 1005,2 hPa 0,0 l/m 2 min 0 min 604 W/m 41,8 km/h (6 Bft)
30.03.2015 13:08 8,7 C 8,3 C 75 % 1005,2 hPa 0,0 l/m 2 min 0 min 742 W/m 31,4 km/h (5 Bft)
30.03.2015 13:10 8,8 C 8,9 C 74 % 1005,3 hPa 0,0 l/m 2 min 0 min 744 W/m 31,4 km/h (5 Bft)
30.03.2015 13:12 8,9 C 8,9 C 74 % 1005,2 hPa 0,0 l/m 2 min 0 min 681 W/m 39,7 km/h (6 Bft)
30.03.2015 13:14 9,0 C 8,9 C 73 % 1005,2 hPa 0,0 l/m 2 min 0 min 614 W/m 50,2 km/h (7 Bft)
30.03.2015 13:16 9,1 C 8,9 C 72 % 1005,3 hPa 0,0 l/m 2 min 0 min 575 W/m 37,7 km/h (5 Bft)
30.03.2015 13:18 9,1 C 8,9 C 72 % 1005,4 hPa 0,0 l/m 2 min 0 min 601 W/m 43,9 km/h (6 Bft)
30.03.2015 13:20 9,1 C 8,9 C 72 % 1005,5 hPa 0,0 l/m 2 min 0 min 672 W/m 39,7 km/h (6 Bft)
30.03.2015 13:22 9,2 C 8,9 C 73 % 1005,6 hPa 0,0 l/m 2 min 0 min 670 W/m 33,5 km/h (5 Bft)
30.03.2015 13:24 9,3 C 9,4 C 73 % 1005,7 hPa 0,0 l/m 2 min 0 min 732 W/m 29,3 km/h (5 Bft)
30.03.2015 13:26 9,4 C 10,0 C 73 % 1005,7 hPa 0,0 l/m 2 min 0 min 845 W/m 39,7 km/h (6 Bft)
30.03.2015 13:28 9,5 C 9,4 C 72 % 1005,7 hPa 0,0 l/m 2 min 0 min 730 W/m 46,0 km/h (6 Bft)
30.03.2015 13:30 9,6 C 9,4 C 71 % 1005,5 hPa 0,0 l/m 2 min 0 min 592 W/m 43,9 km/h (6 Bft)
30.03.2015 13:32 9,6 C 9,4 C 70 % 1005,9 hPa 0,0 l/m 2 min 0 min 657 W/m 46,0 km/h (6 Bft)
30.03.2015 13:34 9,6 C 9,4 C 71 % 1005,8 hPa 0,0 l/m 2 min 0 min 720 W/m 48,1 km/h (6 Bft)
30.03.2015 13:36 9,6 C 8,9 C 69 % 1005,9 hPa 0,0 l/m 2 min 0 min 451 W/m 46,0 km/h (6 Bft)
30.03.2015 13:38 9,6 C 9,4 C 70 % 1006,0 hPa 0,0 l/m 2 min 0 min 450 W/m 35,6 km/h (5 Bft)
30.03.2015 13:40 9,6 C 9,4 C 70 % 1006,2 hPa 0,0 l/m 2 min 0 min 595 W/m 48,1 km/h (6 Bft)
30.03.2015 13:42 9,5 C 8,9 C 67 % 1006,2 hPa 0,0 l/m 2 min 0 min 539 W/m 50,2 km/h (7 Bft)
30.03.2015 13:44 9,4 C 8,9 C 66 % 1006,1 hPa 0,0 l/m 2 min 0 min 336 W/m 58,6 km/h (7 Bft)
30.03.2015 13:46 9,3 C 8,3 C 65 % 1006,2 hPa 0,0 l/m 0 min 0 min 275 W/m 48,1 km/h (6 Bft)
30.03.2015 13:48 9,2 C 8,3 C 65 % 1006,3 hPa 0,0 l/m 0 min 0 min 218 W/m 35,6 km/h (5 Bft)
30.03.2015 13:50 9,1 C 8,3 C 67 % 1006,4 hPa 0,0 l/m 0 min 0 min 224 W/m 48,1 km/h (6 Bft)
30.03.2015 13:52 9,0 C 7,8 C 67 % 1006,4 hPa 0,0 l/m 0 min 0 min 222 W/m 54,4 km/h (7 Bft)
30.03.2015 13:54 8,9 C 7,8 C 66 % 1006,4 hPa 0,0 l/m 0 min 0 min 235 W/m 37,7 km/h (5 Bft)
30.03.2015 13:56 8,8 C 8,3 C 67 % 1006,4 hPa 0,0 l/m 0 min 0 min 304 W/m 37,7 km/h (5 Bft)
30.03.2015 13:58 8,7 C 8,3 C 68 % 1006,6 hPa 0,0 l/m 0 min 0 min 324 W/m 41,8 km/h (6 Bft)
30.03.2015 14:00 8,7 C 8,9 C 68 % 1006,6 hPa 0,0 l/m 2 min 0 min 383 W/m 33,5 km/h (5 Bft)
30.03.2015 14:02 8,8 C 8,9 C 69 % 1006,8 hPa 0,0 l/m 2 min 0 min 474 W/m 29,3 km/h (5 Bft)
30.03.2015 14:04 8,8 C 9,4 C 70 % 1006,8 hPa 0,0 l/m 2 min 0 min 619 W/m 35,6 km/h (5 Bft)
30.03.2015 14:06 8,9 C 9,4 C 70 % 1006,8 hPa 0,0 l/m 2 min 0 min 498 W/m 43,9 km/h (6 Bft)
30.03.2015 14:08 9,0 C 9,4 C 69 % 1007,0 hPa 0,0 l/m 2 min 0 min 362 W/m 27,2 km/h (4 Bft)
30.03.2015 14:10 9,0 C 8,9 C 69 % 1006,9 hPa 0,0 l/m 0 min 0 min 324 W/m 35,6 km/h (5 Bft)
30.03.2015 14:12 9,0 C 8,9 C 69 % 1007,0 hPa 0,0 l/m 0 min 0 min 318 W/m 31,4 km/h (5 Bft)
30.03.2015 14:14 8,9 C 8,9 C 69 % 1007,0 hPa 0,0 l/m 0 min 0 min 296 W/m 37,7 km/h (5 Bft)
30.03.2015 14:16 8,9 C 8,3 C 68 % 1006,8 hPa 0,0 l/m 2 min 0 min 334 W/m 56,5 km/h (7 Bft)
30.03.2015 14:18 8,9 C 8,3 C 67 % 1007,0 hPa 0,0 l/m 0 min 0 min 290 W/m 43,9 km/h (6 Bft)
30.03.2015 14:20 8,9 C 8,9 C 68 % 1007,1 hPa 0,0 l/m 2 min 0 min 336 W/m 39,7 km/h (6 Bft)
30.03.2015 14:22 8,8 C 8,3 C 67 % 1006,9 hPa 0,0 l/m 2 min 0 min 336 W/m 41,8 km/h (6 Bft)
30.03.2015 14:24 8,8 C 8,3 C 67 % 1007,1 hPa 0,0 l/m 0 min 0 min 267 W/m 29,3 km/h (5 Bft)
30.03.2015 14:26 8,8 C 8,3 C 68 % 1007,3 hPa 0,0 l/m 0 min 0 min 308 W/m 43,9 km/h (6 Bft)
30.03.2015 14:28 8,8 C 8,3 C 68 % 1007,2 hPa 0,0 l/m 0 min 0 min 247 W/m 37,7 km/h (5 Bft)
30.03.2015 14:30 8,8 C 8,3 C 68 % 1007,2 hPa 0,0 l/m 0 min 0 min 217 W/m 33,5 km/h (5 Bft)
30.03.2015 14:32 8,8 C 8,3 C 68 % 1007,1 hPa 0,0 l/m 0 min 0 min 247 W/m 46,0 km/h (6 Bft)
30.03.2015 14:34 8,8 C 8,3 C 68 % 1007,2 hPa 0,0 l/m 0 min 0 min 227 W/m 31,4 km/h (5 Bft)
30.03.2015 14:36 8,8 C 8,3 C 68 % 1007,2 hPa 0,0 l/m 2 min 0 min 350 W/m 39,7 km/h (6 Bft)
30.03.2015 14:38 8,8 C 7,8 C 67 % 1007,3 hPa 0,0 l/m 0 min 0 min 183 W/m 33,5 km/h (5 Bft)
30.03.2015 14:40 8,7 C 7,8 C 67 % 1007,4 hPa 0,0 l/m 0 min 0 min 172 W/m 43,9 km/h (6 Bft)
30.03.2015 14:42 8,7 C 7,8 C 67 % 1007,4 hPa 0,0 l/m 0 min 0 min 210 W/m 39,7 km/h (6 Bft)
30.03.2015 14:44 8,7 C 8,3 C 67 % 1007,5 hPa 0,0 l/m 0 min 0 min 294 W/m 46,0 km/h (6 Bft)
30.03.2015 14:46 8,7 C 8,9 C 68 % 1007,4 hPa 0,0 l/m 2 min 0 min 363 W/m 23,0 km/h (4 Bft)
30.03.2015 14:48 8,8 C 9,4 C 68 % 1007,6 hPa 0,0 l/m 2 min 0 min 465 W/m 20,9 km/h (4 Bft)
30.03.2015 14:50 8,9 C 9,4 C 67 % 1007,5 hPa 0,0 l/m 2 min 0 min 415 W/m 35,6 km/h (5 Bft)
30.03.2015 14:52 8,9 C 8,9 C 67 % 1007,5 hPa 0,2 l/m 0 min 0 min 290 W/m 50,2 km/h (7 Bft)
30.03.2015 14:54 8,9 C 8,9 C 65 % 1007,6 hPa 0,0 l/m 2 min 0 min 332 W/m 46,0 km/h (6 Bft)
30.03.2015 14:56 8,9 C 8,3 C 64 % 1007,7 hPa 0,0 l/m 0 min 0 min 265 W/m 50,2 km/h (7 Bft)
30.03.2015 14:58 8,8 C 8,3 C 64 % 1007,9 hPa 0,0 l/m 2 min 0 min 379 W/m 50,2 km/h (7 Bft)
30.03.2015 15:00 8,8 C 8,3 C 63 % 1007,8 hPa 0,0 l/m 0 min 0 min 247 W/m 52,3 km/h (7 Bft)
30.03.2015 15:02 8,8 C 8,3 C 63 % 1007,9 hPa 0,0 l/m 0 min 0 min 239 W/m 41,8 km/h (6 Bft)
30.03.2015 15:04 8,8 C 8,3 C 63 % 1008,0 hPa 0,0 l/m 0 min 0 min 237 W/m 50,2 km/h (7 Bft)
30.03.2015 15:06 8,7 C 7,8 C 63 % 1008,0 hPa 0,0 l/m 0 min 0 min 187 W/m 48,1 km/h (6 Bft)
30.03.2015 15:08 8,7 C 7,8 C 63 % 1008,0 hPa 0,0 l/m 0 min 0 min 164 W/m 37,7 km/h (5 Bft)
30.03.2015 15:10 8,7 C 7,8 C 63 % 1008,0 hPa 0,0 l/m 0 min 0 min 195 W/m 46,0 km/h (6 Bft)
30.03.2015 15:12 8,6 C 8,3 C 64 % 1008,1 hPa 0,0 l/m 0 min 0 min 281 W/m 46,0 km/h (6 Bft)
30.03.2015 15:14 8,6 C 8,9 C 64 % 1008,2 hPa 0,0 l/m 0 min 0 min 302 W/m 37,7 km/h (5 Bft)
30.03.2015 15:16 8,7 C 8,9 C 64 % 1008,2 hPa 0,0 l/m 2 min 0 min 391 W/m 43,9 km/h (6 Bft)
30.03.2015 15:18 8,7 C 8,9 C 63 % 1008,2 hPa 0,0 l/m 2 min 0 min 340 W/m 43,9 km/h (6 Bft)
30.03.2015 15:20 8,7 C 9,4 C 63 % 1008,1 hPa 0,0 l/m 2 min 0 min 430 W/m 41,8 km/h (6 Bft)
30.03.2015 15:22 8,7 C 9,4 C 63 % 1008,3 hPa 0,0 l/m 2 min 0 min 412 W/m 41,8 km/h (6 Bft)
30.03.2015 15:24 8,7 C 9,4 C 63 % 1008,4 hPa 0,0 l/m 2 min 0 min 327 W/m 39,7 km/h (6 Bft)
30.03.2015 15:26 8,8 C 9,4 C 63 % 1008,4 hPa 0,0 l/m 2 min 0 min 317 W/m 41,8 km/h (6 Bft)
30.03.2015 15:28 8,8 C 9,4 C 64 % 1008,3 hPa 0,0 l/m 2 min 0 min 346 W/m 35,6 km/h (5 Bft)
30.03.2015 15:30 8,9 C 9,4 C 65 % 1008,3 hPa 0,0 l/m 0 min 0 min 290 W/m 33,5 km/h (5 Bft)
30.03.2015 15:32 8,9 C 8,9 C 65 % 1008,4 hPa 0,0 l/m 0 min 0 min 233 W/m 39,7 km/h (6 Bft)
30.03.2015 15:34 8,9 C 8,9 C 64 % 1008,3 hPa 0,0 l/m 0 min 0 min 222 W/m 50,2 km/h (7 Bft)
30.03.2015 15:36 8,8 C 8,3 C 63 % 1008,4 hPa 0,0 l/m 0 min 0 min 227 W/m 35,6 km/h (5 Bft)
30.03.2015 15:38 8,8 C 8,9 C 64 % 1008,3 hPa 0,0 l/m 2 min 0 min 379 W/m 41,8 km/h (6 Bft)
30.03.2015 15:40 8,8 C 8,9 C 64 % 1008,4 hPa 0,0 l/m 2 min 0 min 327 W/m 39,7 km/h (6 Bft)
30.03.2015 15:42 8,8 C 9,4 C 64 % 1008,3 hPa 0,0 l/m 2 min 0 min 420 W/m 35,6 km/h (5 Bft)
30.03.2015 15:44 8,8 C 9,4 C 64 % 1008,4 hPa 0,0 l/m 2 min 0 min 408 W/m 41,8 km/h (6 Bft)
30.03.2015 15:46 8,8 C 9,4 C 65 % 1008,4 hPa 0,0 l/m 2 min 0 min 411 W/m 46,0 km/h (6 Bft)
30.03.2015 15:48 8,9 C 9,4 C 65 % 1008,4 hPa 0,0 l/m 2 min 0 min 339 W/m 35,6 km/h (5 Bft)
30.03.2015 15:50 8,9 C 9,4 C 65 % 1008,4 hPa 0,0 l/m 2 min 0 min 455 W/m 43,9 km/h (6 Bft)
30.03.2015 15:52 8,9 C 8,9 C 64 % 1008,5 hPa 0,0 l/m 2 min 0 min 366 W/m 43,9 km/h (6 Bft)
30.03.2015 15:54 8,9 C 9,4 C 65 % 1008,6 hPa 0,0 l/m 2 min 0 min 288 W/m 37,7 km/h (5 Bft)
30.03.2015 15:56 8,9 C 9,4 C 64 % 1008,5 hPa 0,0 l/m 2 min 0 min 352 W/m 46,0 km/h (6 Bft)
30.03.2015 15:58 9,0 C 9,4 C 63 % 1008,5 hPa 0,0 l/m 2 min 0 min 328 W/m 41,8 km/h (6 Bft)
30.03.2015 16:00 9,0 C 10,0 C 64 % 1008,4 hPa 0,0 l/m 2 min 0 min 337 W/m 48,1 km/h (6 Bft)
30.03.2015 16:02 9,1 C 10,0 C 63 % 1008,5 hPa 0,0 l/m 2 min 0 min 299 W/m 33,5 km/h (5 Bft)
30.03.2015 16:04 9,1 C 10,0 C 63 % 1008,5 hPa 0,0 l/m 2 min 0 min 323 W/m 46,0 km/h (6 Bft)
30.03.2015 16:06 9,1 C 10,0 C 63 % 1008,5 hPa 0,0 l/m 2 min 0 min 288 W/m 31,4 km/h (5 Bft)
30.03.2015 16:08 9,1 C 9,4 C 63 % 1008,6 hPa 0,0 l/m 0 min 0 min 240 W/m 35,6 km/h (5 Bft)
30.03.2015 16:10 9,2 C 9,4 C 63 % 1008,5 hPa 0,0 l/m 0 min 0 min 247 W/m 27,2 km/h (4 Bft)
30.03.2015 16:12 9,2 C 9,4 C 62 % 1008,7 hPa 0,0 l/m 2 min 0 min 278 W/m 39,7 km/h (6 Bft)
30.03.2015 16:14 9,3 C 10,0 C 62 % 1008,7 hPa 0,0 l/m 2 min 0 min 700 W/m 50,2 km/h (7 Bft)
30.03.2015 16:16 9,3 C 10,6 C 62 % 1008,7 hPa 0,0 l/m 2 min 0 min 674 W/m 50,2 km/h (7 Bft)
30.03.2015 16:18 9,4 C 10,6 C 62 % 1008,7 hPa 0,0 l/m 2 min 0 min 620 W/m 46,0 km/h (6 Bft)
30.03.2015 16:20 9,6 C 11,1 C 62 % 1008,6 hPa 0,0 l/m 2 min 0 min 585 W/m 50,2 km/h (7 Bft)
30.03.2015 16:22 9,7 C 11,7 C 61 % 1008,7 hPa 0,0 l/m 2 min 0 min 566 W/m 46,0 km/h (6 Bft)
30.03.2015 16:24 9,8 C 11,7 C 61 % 1008,7 hPa 0,0 l/m 2 min 0 min 562 W/m 33,5 km/h (5 Bft)
30.03.2015 16:26 9,8 C 10,0 C 60 % 1009,0 hPa 0,0 l/m 2 min 0 min 470 W/m 52,3 km/h (7 Bft)
30.03.2015 16:28 9,8 C 10,0 C 60 % 1008,8 hPa 0,0 l/m 2 min 0 min 310 W/m 50,2 km/h (7 Bft)
30.03.2015 16:30 9,9 C 10,0 C 60 % 1008,8 hPa 0,0 l/m 2 min 0 min 627 W/m 37,7 km/h (5 Bft)
30.03.2015 16:32 9,9 C 10,6 C 60 % 1008,8 hPa 0,0 l/m 2 min 0 min 604 W/m 39,7 km/h (6 Bft)
30.03.2015 16:34 9,9 C 10,0 C 61 % 1008,9 hPa 0,0 l/m 2 min 0 min 295 W/m 31,4 km/h (5 Bft)
30.03.2015 16:36 10,0 C 10,0 C 61 % 1008,9 hPa 0,0 l/m 0 min 0 min 165 W/m 31,4 km/h (5 Bft)
30.03.2015 16:38 9,9 C 9,4 C 61 % 1009,0 hPa 0,0 l/m 0 min 0 min 135 W/m 35,6 km/h (5 Bft)
30.03.2015 16:40 9,9 C 9,4 C 61 % 1009,0 hPa 0,0 l/m 0 min 0 min 134 W/m 25,1 km/h (4 Bft)
30.03.2015 16:42 9,9 C 9,4 C 61 % 1009,1 hPa 0,0 l/m 0 min 2 min 139 W/m 29,3 km/h (5 Bft)
30.03.2015 16:44 9,8 C 8,9 C 63 % 1009,1 hPa 0,0 l/m 0 min 2 min 139 W/m 31,4 km/h (5 Bft)
30.03.2015 16:46 9,8 C 8,3 C 63 % 1009,2 hPa 0,0 l/m 0 min 2 min 182 W/m 27,2 km/h (4 Bft)
30.03.2015 16:48 9,8 C 8,9 C 64 % 1009,2 hPa 0,0 l/m 2 min 0 min 439 W/m 37,7 km/h (5 Bft)
30.03.2015 16:50 9,8 C 9,4 C 64 % 1009,2 hPa 0,0 l/m 2 min 0 min 491 W/m 33,5 km/h (5 Bft)
30.03.2015 16:52 9,8 C 10,0 C 63 % 1009,2 hPa 0,0 l/m 2 min 0 min 518 W/m 39,7 km/h (6 Bft)
30.03.2015 16:54 9,9 C 10,0 C 62 % 1009,3 hPa 0,0 l/m 2 min 0 min 528 W/m 37,7 km/h (5 Bft)
30.03.2015 16:56 9,9 C 10,6 C 62 % 1009,3 hPa 0,0 l/m 2 min 0 min 542 W/m 39,7 km/h (6 Bft)
30.03.2015 16:58 10,0 C 10,6 C 62 % 1009,3 hPa 0,0 l/m 2 min 0 min 546 W/m 27,2 km/h (4 Bft)
30.03.2015 17:00 10,1 C 11,1 C 62 % 1009,3 hPa 0,0 l/m 2 min 0 min 556 W/m 33,5 km/h (5 Bft)
30.03.2015 17:02 10,2 C 10,6 C 61 % 1009,3 hPa 0,0 l/m 2 min 0 min 524 W/m 41,8 km/h (6 Bft)
30.03.2015 17:04 10,2 C 10,0 C 59 % 1009,4 hPa 0,0 l/m 2 min 0 min 359 W/m 35,6 km/h (5 Bft)
30.03.2015 17:06 10,2 C 8,9 C 58 % 1009,3 hPa 0,0 l/m 0 min 0 min 137 W/m 43,9 km/h (6 Bft)
30.03.2015 17:08 10,1 C 8,9 C 57 % 1009,3 hPa 0,0 l/m 0 min 0 min 97 W/m 31,4 km/h (5 Bft)
30.03.2015 17:10 9,9 C 8,3 C 57 % 1009,3 hPa 0,0 l/m 0 min 0 min 107 W/m 33,5 km/h (5 Bft)
30.03.2015 17:12 9,8 C 8,3 C 57 % 1009,4 hPa 0,0 l/m 0 min 0 min 133 W/m 25,1 km/h (4 Bft)
30.03.2015 17:14 9,8 C 8,9 C 58 % 1009,4 hPa 0,0 l/m 0 min 0 min 148 W/m 31,4 km/h (5 Bft)
30.03.2015 17:16 9,7 C 8,9 C 58 % 1009,4 hPa 0,0 l/m 0 min 0 min 157 W/m 29,3 km/h (5 Bft)
30.03.2015 17:18 9,6 C 8,3 C 57 % 1009,4 hPa 0,0 l/m 0 min 0 min 110 W/m 54,4 km/h (7 Bft)
30.03.2015 17:20 9,5 C 7,8 C 58 % 1009,4 hPa 0,0 l/m 0 min 0 min 93 W/m 27,2 km/h (4 Bft)
30.03.2015 17:25 9,3 C 7,8 C 58 % 1009,6 hPa 0,0 l/m 2 min 0 min 262 W/m 39,7 km/h (6 Bft)
30.03.2015 17:30 9,1 C 7,8 C 58 % 1009,6 hPa 0,0 l/m 0 min 0 min 187 W/m 39,7 km/h (6 Bft)
30.03.2015 17:35 9,0 C 7,8 C 57 % 1009,8 hPa 0,0 l/m 0 min 0 min 80 W/m 46,0 km/h (6 Bft)
30.03.2015 17:40 9,0 C 7,8 C 55 % 1009,7 hPa 0,0 l/m 2 min 0 min 358 W/m 39,7 km/h (6 Bft)
30.03.2015 17:52 8,7 C 7,2 C 56 % 1010,0 hPa 0,0 l/m 0 min 0 min 85 W/m 35,6 km/h (5 Bft)
30.03.2015 17:54 8,7 C 6,7 C 56 % 1010,1 hPa 0,0 l/m 0 min 0 min 71 W/m 31,4 km/h (5 Bft)
30.03.2015 17:56 8,6 C 6,7 C 57 % 1010,0 hPa 0,0 l/m 0 min 0 min 70 W/m 35,6 km/h (5 Bft)
30.03.2015 17:58 8,6 C 6,7 C 57 % 1010,1 hPa 0,0 l/m 0 min 0 min 70 W/m 35,6 km/h (5 Bft)
30.03.2015 18:00 8,5 C 6,7 C 58 % 1010,2 hPa 0,0 l/m 0 min 0 min 65 W/m 20,9 km/h (4 Bft)
30.03.2015 18:02 8,5 C 7,2 C 58 % 1010,1 hPa 0,0 l/m 0 min 0 min 136 W/m 31,4 km/h (5 Bft)
30.03.2015 18:06 8,6 C 7,8 C 59 % 1009,9 hPa 0,0 l/m 2 min 0 min 268 W/m 31,4 km/h (5 Bft)
30.03.2015 18:08 8,6 C 7,8 C 59 % 1009,9 hPa 0,0 l/m 2 min 0 min 223 W/m 41,8 km/h (6 Bft)
30.03.2015 18:10 8,7 C 7,8 C 59 % 1010,0 hPa 0,0 l/m 0 min 0 min 101 W/m 27,2 km/h (4 Bft)
30.03.2015 18:12 8,7 C 7,8 C 59 % 1010,1 hPa 0,0 l/m 2 min 0 min 244 W/m 23,0 km/h (4 Bft)
30.03.2015 18:14 8,8 C 7,2 C 58 % 1010,0 hPa 0,0 l/m 2 min 0 min 230 W/m 25,1 km/h (4 Bft)
30.03.2015 18:16 8,8 C 7,2 C 58 % 1010,0 hPa 0,0 l/m 2 min 0 min 222 W/m 37,7 km/h (5 Bft)
30.03.2015 18:18 8,8 C 7,2 C 57 % 1010,2 hPa 0,0 l/m 2 min 0 min 215 W/m 35,6 km/h (5 Bft)
30.03.2015 18:20 8,9 C 7,2 C 56 % 1010,1 hPa 0,0 l/m 2 min 0 min 205 W/m 23,0 km/h (4 Bft)
30.03.2015 18:22 8,9 C 7,2 C 56 % 1010,1 hPa 0,0 l/m 2 min 0 min 181 W/m 23,0 km/h (4 Bft)
30.03.2015 18:24 9,0 C 7,2 C 57 % 1010,2 hPa 0,0 l/m 2 min 0 min 189 W/m 25,1 km/h (4 Bft)
30.03.2015 18:26 9,0 C 7,2 C 56 % 1010,2 hPa 0,0 l/m 2 min 0 min 156 W/m 35,6 km/h (5 Bft)
30.03.2015 18:28 9,1 C 7,2 C 56 % 1010,3 hPa 0,0 l/m 2 min 0 min 165 W/m 29,3 km/h (5 Bft)
30.03.2015 18:30 9,1 C 7,2 C 56 % 1010,1 hPa 0,0 l/m 2 min 0 min 163 W/m 31,4 km/h (5 Bft)
30.03.2015 18:32 9,1 C 7,2 C 56 % 1010,1 hPa 0,0 l/m 2 min 0 min 159 W/m 31,4 km/h (5 Bft)
30.03.2015 18:34 9,1 C 7,2 C 57 % 1010,1 hPa 0,0 l/m 2 min 0 min 154 W/m 29,3 km/h (5 Bft)
30.03.2015 18:36 9,1 C 7,2 C 57 % 1010,2 hPa 0,0 l/m 2 min 0 min 150 W/m 16,7 km/h (3 Bft)
30.03.2015 18:38 9,1 C 7,2 C 56 % 1010,3 hPa 0,0 l/m 2 min 0 min 143 W/m 31,4 km/h (5 Bft)
30.03.2015 18:40 9,1 C 7,2 C 56 % 1010,2 hPa 0,0 l/m 2 min 0 min 138 W/m 20,9 km/h (4 Bft)
30.03.2015 18:42 9,1 C 7,2 C 55 % 1010,1 hPa 0,0 l/m 2 min 0 min 134 W/m 20,9 km/h (4 Bft)
30.03.2015 18:44 9,1 C 7,2 C 55 % 1010,1 hPa 0,0 l/m 2 min 0 min 126 W/m 39,7 km/h (6 Bft)
30.03.2015 18:46 9,0 C 7,2 C 53 % 1010,3 hPa 0,0 l/m 2 min 0 min 119 W/m 43,9 km/h (6 Bft)
30.03.2015 18:48 9,0 C 6,7 C 53 % 1010,2 hPa 0,0 l/m 2 min 0 min 104 W/m 35,6 km/h (5 Bft)
30.03.2015 18:50 8,9 C 6,7 C 54 % 1010,4 hPa 0,0 l/m 2 min 0 min 105 W/m 25,1 km/h (4 Bft)
30.03.2015 18:52 8,9 C 6,7 C 54 % 1010,4 hPa 0,0 l/m 2 min 0 min 98 W/m 35,6 km/h (5 Bft)
30.03.2015 18:54 8,9 C 6,7 C 54 % 1010,4 hPa 0,0 l/m 2 min 0 min 93 W/m 27,2 km/h (4 Bft)
30.03.2015 18:56 8,9 C 6,7 C 55 % 1010,5 hPa 0,0 l/m 2 min 0 min 88 W/m 23,0 km/h (4 Bft)
30.03.2015 18:58 8,8 C 6,7 C 54 % 1010,4 hPa 0,0 l/m 2 min 0 min 82 W/m 23,0 km/h (4 Bft)
30.03.2015 19:00 8,8 C 6,7 C 55 % 1010,4 hPa 0,0 l/m 0 min 0 min 76 W/m 25,1 km/h (4 Bft)
30.03.2015 19:02 8,8 C 6,7 C 56 % 1010,4 hPa 0,0 l/m 0 min 0 min 71 W/m 29,3 km/h (5 Bft)
30.03.2015 19:04 8,7 C 6,7 C 56 % 1010,6 hPa 0,0 l/m 0 min 0 min 65 W/m 20,9 km/h (4 Bft)
30.03.2015 19:06 8,7 C 6,7 C 56 % 1010,5 hPa 0,0 l/m 0 min 0 min 57 W/m 27,2 km/h (4 Bft)
30.03.2015 19:08 8,7 C 6,7 C 57 % 1010,4 hPa 0,0 l/m 0 min 0 min 51 W/m 18,8 km/h (3 Bft)
30.03.2015 19:10 8,6 C 6,7 C 57 % 1010,4 hPa 0,0 l/m 0 min 0 min 46 W/m 20,9 km/h (4 Bft)
30.03.2015 19:12 8,6 C 6,7 C 58 % 1010,3 hPa 0,0 l/m 0 min 0 min 45 W/m 23,0 km/h (4 Bft)
30.03.2015 19:14 8,6 C 6,7 C 58 % 1010,3 hPa 0,0 l/m 0 min 0 min 42 W/m 25,1 km/h (4 Bft)
30.03.2015 19:16 8,6 C 6,1 C 58 % 1010,1 hPa 0,0 l/m 0 min 0 min 35 W/m 14,6 km/h (3 Bft)
30.03.2015 19:18 8,5 C 6,1 C 59 % 1010,1 hPa 0,0 l/m 0 min 0 min 34 W/m 18,8 km/h (3 Bft)
30.03.2015 19:20 8,5 C 6,1 C 59 % 1010,3 hPa 0,0 l/m 0 min 0 min 40 W/m 23,0 km/h (4 Bft)
30.03.2015 19:22 8,4 C 6,1 C 60 % 1010,3 hPa 0,0 l/m 0 min 0 min 40 W/m 16,7 km/h (3 Bft)
30.03.2015 19:24 8,4 C 6,1 C 60 % 1010,4 hPa 0,0 l/m 0 min 0 min 35 W/m 14,6 km/h (3 Bft)
30.03.2015 19:26 8,4 C 6,1 C 60 % 1010,3 hPa 0,0 l/m 0 min 0 min 32 W/m 16,7 km/h (3 Bft)
30.03.2015 19:28 8,4 C 6,1 C 60 % 1010,4 hPa 0,0 l/m 0 min 0 min 31 W/m 18,8 km/h (3 Bft)
30.03.2015 19:30 8,3 C 6,1 C 61 % 1010,4 hPa 0,0 l/m 0 min 0 min 34 W/m 14,6 km/h (3 Bft)
30.03.2015 19:32 8,3 C 6,1 C 61 % 1010,5 hPa 0,0 l/m 0 min 0 min 34 W/m 18,8 km/h (3 Bft)
30.03.2015 19:34 8,2 C 6,1 C 62 % 1010,5 hPa 0,0 l/m 0 min 0 min 29 W/m 27,2 km/h (4 Bft)
30.03.2015 19:36 8,1 C 6,1 C 62 % 1010,4 hPa 0,0 l/m 0 min 0 min 24 W/m 14,6 km/h (3 Bft)
30.03.2015 19:38 8,1 C 5,6 C 63 % 1010,4 hPa 0,0 l/m 0 min 0 min 19 W/m 14,6 km/h (3 Bft)
30.03.2015 19:40 8,1 C 5,6 C 63 % 1010,3 hPa 0,0 l/m 0 min 0 min 16 W/m 10,5 km/h (2 Bft)
30.03.2015 19:42 8,0 C 5,6 C 63 % 1010,3 hPa 0,0 l/m 0 min 0 min 14 W/m 18,8 km/h (3 Bft)
30.03.2015 19:44 7,9 C 5,6 C 63 % 1010,3 hPa 0,0 l/m 0 min 0 min 14 W/m 23,0 km/h (4 Bft)
30.03.2015 19:46 7,8 C 5,6 C 62 % 1010,3 hPa 0,0 l/m 0 min 0 min 14 W/m 18,8 km/h (3 Bft)
30.03.2015 19:48 7,8 C 5,6 C 62 % 1010,3 hPa 0,0 l/m 2 min 0 min 14 W/m 18,8 km/h (3 Bft)
30.03.2015 19:50 7,7 C 5,6 C 62 % 1010,4 hPa 0,0 l/m 2 min 0 min 12 W/m 14,6 km/h (3 Bft)
30.03.2015 19:52 7,7 C 5,6 C 62 % 1010,3 hPa 0,0 l/m 2 min 0 min 12 W/m 16,7 km/h (3 Bft)
30.03.2015 19:54 7,6 C 5,6 C 63 % 1010,4 hPa 0,0 l/m 0 min 0 min 10 W/m 12,6 km/h (3 Bft)
30.03.2015 19:56 7,6 C 5,6 C 63 % 1010,4 hPa 0,0 l/m 0 min 0 min 8 W/m 12,6 km/h (3 Bft)
30.03.2015 19:58 7,6 C 5,0 C 63 % 1010,4 hPa 0,0 l/m 0 min 0 min 7 W/m 16,7 km/h (3 Bft)
30.03.2015 20:00 7,5 C 5,6 C 63 % 1010,5 hPa 0,0 l/m 0 min 0 min 6 W/m 16,7 km/h (3 Bft)
30.03.2015 20:02 7,4 C 5,0 C 63 % 1010,5 hPa 0,0 l/m 0 min 0 min 5 W/m 14,6 km/h (3 Bft)
30.03.2015 20:04 7,4 C 5,6 C 63 % 1010,4 hPa 0,0 l/m 0 min 0 min 4 W/m 14,6 km/h (3 Bft)
30.03.2015 20:06 7,3 C 5,6 C 63 % 1010,3 hPa 0,0 l/m 0 min 0 min 0 W/m 16,7 km/h (3 Bft)
30.03.2015 20:08 7,3 C 5,0 C 63 % 1010,3 hPa 0,0 l/m 0 min 0 min 0 W/m 12,6 km/h (3 Bft)
30.03.2015 20:10 7,3 C 5,0 C 63 % 1010,2 hPa 0,0 l/m 0 min 0 min 0 W/m 10,5 km/h (2 Bft)
30.03.2015 20:12 7,2 C 5,0 C 63 % 1010,2 hPa 0,0 l/m 0 min 0 min 0 W/m 14,6 km/h (3 Bft)
30.03.2015 20:14 7,2 C 5,0 C 64 % 1010,2 hPa 0,0 l/m 0 min 0 min 0 W/m 12,6 km/h (3 Bft)
30.03.2015 20:16 7,1 C 5,0 C 64 % 1010,1 hPa 0,0 l/m 0 min 0 min 0 W/m 12,6 km/h (3 Bft)
30.03.2015 20:18 7,1 C 5,0 C 64 % 1010,1 hPa 0,0 l/m 0 min 0 min 0 W/m 16,7 km/h (3 Bft)
30.03.2015 20:20 7,0 C 5,0 C 64 % 1010,1 hPa 0,0 l/m 0 min 0 min 0 W/m 12,6 km/h (3 Bft)
30.03.2015 20:22 6,9 C 5,0 C 64 % 1010,2 hPa 0,0 l/m 0 min 0 min 0 W/m 12,6 km/h (3 Bft)
30.03.2015 20:24 6,9 C 4,4 C 64 % 1010,1 hPa 0,0 l/m 0 min 0 min 0 W/m 16,7 km/h (3 Bft)
30.03.2015 20:26 6,8 C 4,4 C 64 % 1010,1 hPa 0,0 l/m 0 min 0 min 0 W/m 12,6 km/h (3 Bft)
30.03.2015 20:28 6,8 C 4,4 C 64 % 1010,2 hPa 0,0 l/m 0 min 0 min 0 W/m 8,4 km/h (2 Bft)
30.03.2015 20:30 6,8 C 4,4 C 64 % 1010,1 hPa 0,0 l/m 0 min 0 min 0 W/m 10,5 km/h (2 Bft)
30.03.2015 20:32 6,7 C 4,4 C 65 % 1010,1 hPa 0,0 l/m 0 min 0 min 0 W/m 10,5 km/h (2 Bft)
30.03.2015 20:34 6,7 C 3,9 C 65 % 1010,0 hPa 0,0 l/m 0 min 0 min 0 W/m 8,4 km/h (2 Bft)
30.03.2015 20:36 6,7 C 3,9 C 65 % 1010,0 hPa 0,0 l/m 0 min 0 min 0 W/m 8,4 km/h (2 Bft)
30.03.2015 20:38 6,6 C 3,9 C 65 % 1010,0 hPa 0,0 l/m 0 min 0 min 0 W/m 6,3 km/h (2 Bft)
30.03.2015 20:40 6,6 C 3,9 C 65 % 1010,0 hPa 0,0 l/m 0 min 0 min 0 W/m 8,4 km/h (2 Bft)
30.03.2015 20:42 6,6 C 3,3 C 65 % 1010,0 hPa 0,0 l/m 0 min 0 min 0 W/m 6,3 km/h (2 Bft)
30.03.2015 20:44 6,5 C 3,3 C 65 % 1010,2 hPa 0,0 l/m 0 min 0 min 0 W/m 8,4 km/h (2 Bft)
30.03.2015 20:46 6,4 C 3,3 C 66 % 1010,2 hPa 0,0 l/m 0 min 0 min 0 W/m 8,4 km/h (2 Bft)
30.03.2015 20:48 6,4 C 3,3 C 66 % 1010,1 hPa 0,0 l/m 0 min 0 min 0 W/m 8,4 km/h (2 Bft)
30.03.2015 20:50 6,4 C 3,3 C 66 % 1010,0 hPa 0,0 l/m 0 min 0 min 0 W/m 8,4 km/h (2 Bft)
30.03.2015 20:52 6,4 C 3,3 C 66 % 1010,0 hPa 0,0 l/m 0 min 0 min 0 W/m 8,4 km/h (2 Bft)
30.03.2015 20:54 6,4 C 3,3 C 66 % 1010,0 hPa 0,0 l/m 0 min 0 min 0 W/m 4,2 km/h (1 Bft)
30.03.2015 20:56 6,3 C 3,3 C 66 % 1009,9 hPa 0,0 l/m 0 min 0 min 0 W/m 6,3 km/h (2 Bft)
30.03.2015 20:58 6,3 C 3,3 C 66 % 1009,9 hPa 0,0 l/m 0 min 0 min 0 W/m 2,1 km/h (1 Bft)
30.03.2015 21:00 6,3 C 3,3 C 67 % 1010,1 hPa 0,0 l/m 0 min 0 min 0 W/m 6,3 km/h (2 Bft)
30.03.2015 21:02 6,2 C 3,3 C 67 % 1009,9 hPa 0,0 l/m 0 min 0 min 0 W/m 4,2 km/h (1 Bft)
30.03.2015 21:04 6,2 C 3,3 C 67 % 1009,8 hPa 0,0 l/m 0 min 0 min 0 W/m 4,2 km/h (1 Bft)
30.03.2015 21:06 6,2 C 3,3 C 67 % 1009,9 hPa 0,0 l/m 0 min 0 min 0 W/m 4,2 km/h (1 Bft)
30.03.2015 21:08 6,1 C 3,3 C 67 % 1009,8 hPa 0,0 l/m 0 min 0 min 0 W/m 4,2 km/h (1 Bft)
30.03.2015 21:10 6,1 C 3,3 C 68 % 1009,7 hPa 0,0 l/m 0 min 0 min 0 W/m 6,3 km/h (2 Bft)
30.03.2015 21:12 6,1 C 3,3 C 68 % 1009,6 hPa 0,0 l/m 0 min 0 min 0 W/m 8,4 km/h (2 Bft)
30.03.2015 21:14 6,1 C 3,3 C 68 % 1009,5 hPa 0,0 l/m 0 min 0 min 0 W/m 6,3 km/h (2 Bft)
30.03.2015 21:16 6,0 C 3,3 C 68 % 1009,5 hPa 0,0 l/m 0 min 0 min 0 W/m 6,3 km/h (2 Bft)
30.03.2015 21:18 5,9 C 3,3 C 68 % 1009,4 hPa 0,0 l/m 0 min 0 min 0 W/m 6,3 km/h (2 Bft)
30.03.2015 21:20 5,9 C 3,3 C 69 % 1009,3 hPa 0,0 l/m 0 min 0 min 0 W/m 6,3 km/h (2 Bft)
30.03.2015 21:22 5,9 C 3,3 C 69 % 1009,3 hPa 0,0 l/m 0 min 0 min 0 W/m 10,5 km/h (2 Bft)
30.03.2015 21:24 5,9 C 3,3 C 69 % 1009,2 hPa 0,0 l/m 0 min 0 min 0 W/m 8,4 km/h (2 Bft)
30.03.2015 21:26 5,9 C 3,3 C 69 % 1009,2 hPa 0,0 l/m 0 min 0 min 0 W/m 6,3 km/h (2 Bft)
30.03.2015 21:28 5,8 C 3,3 C 70 % 1009,1 hPa 0,0 l/m 0 min 0 min 0 W/m 8,4 km/h (2 Bft)
30.03.2015 21:30 5,8 C 3,3 C 70 % 1009,1 hPa 0,0 l/m 0 min 0 min 0 W/m 8,4 km/h (2 Bft)
30.03.2015 21:32 5,8 C 3,9 C 70 % 1009,1 hPa 0,0 l/m 0 min 0 min 0 W/m 10,5 km/h (2 Bft)
30.03.2015 21:34 5,8 C 3,9 C 70 % 1009,1 hPa 0,0 l/m 0 min 0 min 0 W/m 8,4 km/h (2 Bft)
30.03.2015 21:36 5,8 C 3,9 C 70 % 1009,1 hPa 0,0 l/m 0 min 0 min 0 W/m 10,5 km/h (2 Bft)
30.03.2015 21:38 5,8 C 3,9 C 71 % 1009,0 hPa 0,0 l/m 0 min 0 min 0 W/m 14,6 km/h (3 Bft)
30.03.2015 21:40 5,7 C 3,9 C 71 % 1009,0 hPa 0,0 l/m 0 min 0 min 0 W/m 10,5 km/h (2 Bft)
30.03.2015 21:42 5,7 C 3,9 C 71 % 1008,8 hPa 0,0 l/m 0 min 0 min 0 W/m 10,5 km/h (2 Bft)
30.03.2015 21:44 5,7 C 3,9 C 71 % 1008,8 hPa 0,0 l/m 0 min 0 min 0 W/m 10,5 km/h (2 Bft)
30.03.2015 21:46 5,7 C 3,9 C 71 % 1008,8 hPa 0,0 l/m 0 min 0 min 0 W/m 8,4 km/h (2 Bft)
30.03.2015 21:48 5,7 C 3,9 C 71 % 1008,7 hPa 0,0 l/m 0 min 0 min 0 W/m 10,5 km/h (2 Bft)
30.03.2015 21:50 5,8 C 4,4 C 71 % 1008,6 hPa 0,0 l/m 0 min 0 min 0 W/m 12,6 km/h (3 Bft)
30.03.2015 21:52 5,8 C 4,4 C 72 % 1008,6 hPa 0,0 l/m 0 min 0 min 0 W/m 14,6 km/h (3 Bft)
30.03.2015 21:54 5,8 C 4,4 C 72 % 1008,6 hPa 0,0 l/m 0 min 0 min 0 W/m 10,5 km/h (2 Bft)
30.03.2015 21:56 5,8 C 4,4 C 72 % 1008,5 hPa 0,0 l/m 0 min 0 min 0 W/m 10,5 km/h (2 Bft)
30.03.2015 21:58 5,8 C 4,4 C 72 % 1008,5 hPa 0,0 l/m 0 min 0 min 0 W/m 8,4 km/h (2 Bft)
30.03.2015 22:00 5,8 C 4,4 C 72 % 1008,4 hPa 0,0 l/m 0 min 0 min 0 W/m 14,6 km/h (3 Bft)
30.03.2015 22:02 5,8 C 4,4 C 72 % 1008,3 hPa 0,0 l/m 0 min 0 min 0 W/m 12,6 km/h (3 Bft)
30.03.2015 22:04 5,8 C 4,4 C 72 % 1008,3 hPa 0,0 l/m 0 min 0 min 0 W/m 10,5 km/h (2 Bft)
30.03.2015 22:06 5,9 C 4,4 C 72 % 1008,3 hPa 0,0 l/m 0 min 0 min 0 W/m 12,6 km/h (3 Bft)
30.03.2015 22:08 5,9 C 4,4 C 72 % 1008,2 hPa 0,0 l/m 0 min 0 min 0 W/m 14,6 km/h (3 Bft)
30.03.2015 22:10 5,9 C 4,4 C 72 % 1008,1 hPa 0,0 l/m 0 min 0 min 0 W/m 14,6 km/h (3 Bft)
30.03.2015 22:12 5,9 C 4,4 C 72 % 1008,1 hPa 0,0 l/m 0 min 0 min 0 W/m 16,7 km/h (3 Bft)
30.03.2015 22:14 5,9 C 5,0 C 72 % 1008,0 hPa 0,0 l/m 0 min 0 min 0 W/m 16,7 km/h (3 Bft)
30.03.2015 22:16 6,0 C 5,0 C 72 % 1007,9 hPa 0,0 l/m 0 min 0 min 0 W/m 14,6 km/h (3 Bft)
30.03.2015 22:18 6,0 C 5,0 C 72 % 1007,8 hPa 0,0 l/m 0 min 0 min 0 W/m 16,7 km/h (3 Bft)
30.03.2015 22:20 6,1 C 5,0 C 72 % 1007,7 hPa 0,0 l/m 0 min 0 min 0 W/m 8,4 km/h (2 Bft)
30.03.2015 22:22 6,1 C 5,0 C 72 % 1007,7 hPa 0,0 l/m 0 min 0 min 0 W/m 18,8 km/h (3 Bft)
30.03.2015 22:24 6,1 C 5,0 C 72 % 1007,7 hPa 0,0 l/m 0 min 0 min 0 W/m 14,6 km/h (3 Bft)
30.03.2015 22:26 6,1 C 5,0 C 72 % 1007,6 hPa 0,0 l/m 0 min 0 min 0 W/m 14,6 km/h (3 Bft)
30.03.2015 22:28 6,2 C 5,0 C 72 % 1007,6 hPa 0,0 l/m 0 min 0 min 0 W/m 18,8 km/h (3 Bft)
30.03.2015 22:30 6,2 C 5,0 C 72 % 1007,5 hPa 0,0 l/m 0 min 0 min 0 W/m 18,8 km/h (3 Bft)
30.03.2015 22:32 6,2 C 5,0 C 73 % 1007,4 hPa 0,0 l/m 0 min 0 min 0 W/m 10,5 km/h (2 Bft)
30.03.2015 22:34 6,2 C 5,0 C 73 % 1007,5 hPa 0,0 l/m 0 min 0 min 0 W/m 18,8 km/h (3 Bft)
30.03.2015 22:36 6,2 C 5,0 C 73 % 1007,4 hPa 0,0 l/m 0 min 0 min 0 W/m 16,7 km/h (3 Bft)
30.03.2015 22:38 6,3 C 5,0 C 72 % 1007,4 hPa 0,0 l/m 0 min 0 min 0 W/m 14,6 km/h (3 Bft)
30.03.2015 22:40 6,3 C 5,0 C 72 % 1007,2 hPa 0,0 l/m 0 min 0 min 0 W/m 18,8 km/h (3 Bft)
30.03.2015 22:42 6,3 C 5,0 C 72 % 1007,2 hPa 0,0 l/m 0 min 0 min 0 W/m 14,6 km/h (3 Bft)
30.03.2015 22:44 6,3 C 5,0 C 72 % 1007,2 hPa 0,0 l/m 0 min 0 min 0 W/m 12,6 km/h (3 Bft)
30.03.2015 22:46 6,3 C 5,0 C 72 % 1007,2 hPa 0,0 l/m 0 min 0 min 0 W/m 10,5 km/h (2 Bft)
30.03.2015 22:48 6,4 C 5,0 C 73 % 1007,1 hPa 0,0 l/m 0 min 0 min 0 W/m 12,6 km/h (3 Bft)
30.03.2015 22:50 6,4 C 5,0 C 73 % 1007,1 hPa 0,0 l/m 0 min 0 min 0 W/m 16,7 km/h (3 Bft)
30.03.2015 22:52 6,4 C 5,0 C 73 % 1007,0 hPa 0,0 l/m 0 min 0 min 0 W/m 18,8 km/h (3 Bft)
30.03.2015 22:54 6,4 C 5,0 C 73 % 1006,9 hPa 0,0 l/m 0 min 0 min 0 W/m 18,8 km/h (3 Bft)
30.03.2015 22:56 6,4 C 5,6 C 73 % 1006,8 hPa 0,0 l/m 0 min 0 min 0 W/m 14,6 km/h (3 Bft)
30.03.2015 22:58 6,5 C 5,6 C 73 % 1006,7 hPa 0,0 l/m 0 min 0 min 0 W/m 18,8 km/h (3 Bft)
30.03.2015 23:00 6,6 C 5,6 C 73 % 1006,7 hPa 0,0 l/m 0 min 0 min 0 W/m 14,6 km/h (3 Bft)
30.03.2015 23:02 6,6 C 5,6 C 73 % 1006,8 hPa 0,0 l/m 0 min 0 min 0 W/m 20,9 km/h (4 Bft)
30.03.2015 23:04 6,6 C 5,6 C 73 % 1006,7 hPa 0,0 l/m 0 min 0 min 0 W/m 14,6 km/h (3 Bft)
30.03.2015 23:06 6,6 C 5,6 C 73 % 1006,5 hPa 0,0 l/m 0 min 0 min 0 W/m 18,8 km/h (3 Bft)
30.03.2015 23:08 6,7 C 5,6 C 73 % 1006,6 hPa 0,0 l/m 0 min 0 min 0 W/m 18,8 km/h (3 Bft)
30.03.2015 23:10 6,7 C 5,6 C 73 % 1006,6 hPa 0,0 l/m 0 min 0 min 0 W/m 12,6 km/h (3 Bft)
30.03.2015 23:12 6,7 C 5,6 C 73 % 1006,6 hPa 0,0 l/m 0 min 0 min 0 W/m 25,1 km/h (4 Bft)
30.03.2015 23:14 6,8 C 5,6 C 73 % 1006,5 hPa 0,0 l/m 0 min 0 min 0 W/m 18,8 km/h (3 Bft)
30.03.2015 23:16 6,8 C 5,6 C 73 % 1006,4 hPa 0,0 l/m 0 min 2 min 0 W/m 29,3 km/h (5 Bft)
30.03.2015 23:18 6,8 C 5,6 C 73 % 1006,2 hPa 0,0 l/m 0 min 2 min 0 W/m 14,6 km/h (3 Bft)
30.03.2015 23:20 6,8 C 5,6 C 73 % 1006,2 hPa 0,0 l/m 0 min 2 min 0 W/m 18,8 km/h (3 Bft)
30.03.2015 23:22 6,8 C 5,6 C 74 % 1006,2 hPa 0,0 l/m 0 min 0 min 0 W/m 23,0 km/h (4 Bft)
30.03.2015 23:24 6,9 C 5,6 C 74 % 1006,1 hPa 0,0 l/m 0 min 0 min 0 W/m 18,8 km/h (3 Bft)
30.03.2015 23:26 6,9 C 5,0 C 74 % 1006,2 hPa 0,0 l/m 0 min 2 min 0 W/m 18,8 km/h (3 Bft)
30.03.2015 23:28 6,9 C 4,4 C 74 % 1006,2 hPa 0,0 l/m 0 min 2 min 0 W/m 50,2 km/h (7 Bft)
30.03.2015 23:30 6,9 C 4,4 C 74 % 1006,2 hPa 0,0 l/m 0 min 2 min 0 W/m 33,5 km/h (5 Bft)
30.03.2015 23:32 6,9 C 4,4 C 74 % 1006,2 hPa 0,0 l/m 0 min 2 min 0 W/m 31,4 km/h (5 Bft)
30.03.2015 23:34 6,9 C 3,9 C 75 % 1006,1 hPa 0,0 l/m 0 min 2 min 0 W/m 16,7 km/h (3 Bft)
30.03.2015 23:36 6,9 C 3,9 C 75 % 1006,1 hPa 0,0 l/m 0 min 2 min 0 W/m 25,1 km/h (4 Bft)
30.03.2015 23:38 6,9 C 3,9 C 75 % 1006,0 hPa 0,0 l/m 0 min 2 min 0 W/m 33,5 km/h (5 Bft)
30.03.2015 23:40 6,8 C 3,9 C 76 % 1006,0 hPa 0,0 l/m 0 min 2 min 0 W/m 35,6 km/h (5 Bft)
30.03.2015 23:42 6,8 C 3,9 C 77 % 1006,0 hPa 0,0 l/m 0 min 2 min 0 W/m 29,3 km/h (5 Bft)
30.03.2015 23:44 6,8 C 3,9 C 77 % 1006,0 hPa 0,0 l/m 0 min 2 min 0 W/m 33,5 km/h (5 Bft)
30.03.2015 23:46 6,8 C 3,9 C 78 % 1005,9 hPa 0,0 l/m 0 min 2 min 0 W/m 27,2 km/h (4 Bft)
30.03.2015 23:48 6,7 C 3,9 C 79 % 1005,7 hPa 0,0 l/m 0 min 2 min 0 W/m 25,1 km/h (4 Bft)
30.03.2015 23:50 6,7 C 3,9 C 79 % 1005,6 hPa 0,0 l/m 0 min 2 min 0 W/m 25,1 km/h (4 Bft)
30.03.2015 23:52 6,7 C 3,9 C 80 % 1005,5 hPa 0,0 l/m 0 min 2 min 0 W/m 20,9 km/h (4 Bft)
30.03.2015 23:54 6,7 C 3,9 C 80 % 1005,5 hPa 0,2 l/m 0 min 2 min 0 W/m 20,9 km/h (4 Bft)
30.03.2015 23:56 6,6 C 3,9 C 81 % 1005,6 hPa 0,0 l/m 0 min 2 min 0 W/m 25,1 km/h (4 Bft)
30.03.2015 23:58 6,6 C 3,9 C 81 % 1005,5 hPa 0,0 l/m 0 min 2 min 0 W/m 27,2 km/h (4 Bft)
_ Min-Zeit 07:18 20:42 18:46 00:16 - - - - 20:58
Minimum _ 5,7 C 3,3 C 53 % 995,9 hPa - - - - 2,1 km/h (1 Bft)
_ Max-Zeit 17:02 16:22 00:00 19:04 02:46 07:26 01:46 12:38 13:44
Maximum _ 10,2 C 11,7 C 94 % 1010,6 hPa 0,2 l/m 2 min 2 min 970 W/m 58,6 km/h
W-NW (7 Bft)
Durchschnitt _ 7,5 C 6,0 C 76 % 1003,6 hPa #1,0 l/m #6:12 h #2:18 h 269 W/m 29,0 km/h (5 Bft)
© 2015 W. Hausmann